Time,TemperatureF,DewpointF,PressureIn,WindDirection,WindDirectionDegrees,WindSpeedMPH,WindSpeedGustMPH,Humidity,HourlyPrecipIn,Conditions,Clouds,dailyrainin,SoftwareType,DateUTC
2013-06-09 00:00:00,68.6,59.0,29.19,SSW,213,1.0,7.0,71,0.00,,,0.00,WUHU216DAVISVP2,2013-06-09 04:00:00,
2013-06-09 00:01:00,68.6,59.0,29.19,SSW,208,1.0,7.0,71,0.00,,,0.00,WUHU216DAVISVP2,2013-06-09 04:01:00,
2013-06-09 00:02:00,68.6,59.0,29.19,SSW,207,2.0,7.0,71,0.00,,,0.00,WUHU216DAVISVP2,2013-06-09 04:02:00,
2013-06-09 00:06:00,68.7,58.9,29.19,SSW,207,0.0,6.0,71,0.00,,,0.00,WUHU216DAVISVP2,2013-06-09 04:06:00,
2013-06-09 00:07:00,68.7,58.9,29.19,South,179,0.0,6.0,71,0.00,,,0.00,WUHU216DAVISVP2,2013-06-09 04:07:00,
2013-06-09 00:11:00,68.7,59.1,29.19,South,179,0.0,6.0,71,0.00,,,0.00,WUHU216DAVISVP2,2013-06-09 04:11:00,
2013-06-09 00:12:00,68.7,59.1,29.19,South,179,3.0,6.0,71,0.00,,,0.00,WUHU216DAVISVP2,2013-06-09 04:12:00,
2013-06-09 00:16:00,68.6,59.4,29.19,SSW,213,0.0,5.0,72,0.00,,,0.00,WUHU216DAVISVP2,2013-06-09 04:16:00,
2013-06-09 00:17:00,68.6,59.4,29.19,SSW,213,2.0,4.0,72,0.00,,,0.00,WUHU216DAVISVP2,2013-06-09 04:17:00,
2013-06-09 00:22:00,68.5,59.3,29.19,SSW,212,0.0,4.0,72,0.00,,,0.00,WUHU216DAVISVP2,2013-06-09 04:22:00,
2013-06-09 00:27:00,68.5,59.3,29.19,SSW,208,2.0,5.0,72,0.00,,,0.00,WUHU216DAVISVP2,2013-06-09 04:27:00,
2013-06-09 00:28:00,68.5,59.3,29.19,SSW,208,0.0,5.0,72,0.00,,,0.00,WUHU216DAVISVP2,2013-06-09 04:28:00,
2013-06-09 00:32:00,68.4,59.2,29.19,South,178,1.0,7.0,72,0.00,,,0.00,WUHU216DAVISVP2,2013-06-09 04:32:00,
2013-06-09 00:33:00,68.4,59.6,29.19,South,178,0.0,7.0,73,0.00,,,0.00,WUHU216DAVISVP2,2013-06-09 04:33:00,
2013-06-09 00:37:00,68.3,59.5,29.19,South,187,3.0,7.0,73,0.00,,,0.00,WUHU216DAVISVP2,2013-06-09 04:37:00,
2013-06-09 00:38:00,68.3,59.5,29.19,South,177,0.0,7.0,73,0.00,,,0.00,WUHU216DAVISVP2,2013-06-09 04:38:00,
2013-06-09 00:39:00,68.3,59.5,29.19,South,177,1.0,7.0,73,0.00,,,0.00,WUHU216DAVISVP2,2013-06-09 04:39:00,
2013-06-09 00:42:00,68.3,59.3,29.19,South,174,1.0,7.0,73,0.00,,,0.00,WUHU216DAVISVP2,2013-06-09 04:42:00,
2013-06-09 00:43:00,68.3,59.3,29.19,SSE,164,0.0,7.0,73,0.00,,,0.00,WUHU216DAVISVP2,2013-06-09 04:43:00,
2013-06-09 00:44:00,68.3,59.3,29.19,SSE,164,0.0,7.0,73,0.00,,,0.00,WUHU216DAVISVP2,2013-06-09 04:44:00,
2013-06-09 00:47:00,68.3,59.8,29.20,South,183,1.0,7.0,74,0.00,,,0.00,WUHU216DAVISVP2,2013-06-09 04:47:00,
2013-06-09 00:48:00,68.2,59.7,29.19,SSW,201,1.0,7.0,74,0.00,,,0.00,WUHU216DAVISVP2,2013-06-09 04:48:00,
2013-06-09 00:49:00,68.2,59.7,29.19,SSW,201,0.0,7.0,74,0.00,,,0.00,WUHU216DAVISVP2,2013-06-09 04:49:00,
2013-06-09 00:53:00,68.2,59.7,29.19,ESE,122,0.0,6.0,74,0.00,,,0.00,WUHU216DAVISVP2,2013-06-09 04:53:00,
2013-06-09 00:54:00,68.2,59.7,29.19,ESE,122,1.0,6.0,74,0.00,,,0.00,WUHU216DAVISVP2,2013-06-09 04:54:00,
2013-06-09 00:58:00,68.2,60.1,29.19,SE,145,2.0,6.0,75,0.00,,,0.00,WUHU216DAVISVP2,2013-06-09 04:58:00,
2013-06-09 00:59:00,68.2,60.1,29.19,South,183,0.0,6.0,75,0.00,,,0.00,WUHU216DAVISVP2,2013-06-09 04:59:00,
2013-06-09 01:03:00,68.2,60.1,29.19,SW,218,4.0,7.0,75,0.00,,,0.00,WUHU216DAVISVP2,2013-06-09 05:03:00,
2013-06-09 01:04:00,68.2,60.1,29.19,SSW,212,4.0,7.0,75,0.00,,,0.00,WUHU216DAVISVP2,2013-06-09 05:04:00,
2013-06-09 01:08:00,68.2,60.0,29.19,South,187,2.0,7.0,75,0.00,,,0.00,WUHU216DAVISVP2,2013-06-09 05:08:00,
2013-06-09 01:09:00,68.2,60.1,29.19,South,187,0.0,7.0,75,0.00,,,0.00,WUHU216DAVISVP2,2013-06-09 05:09:00,
2013-06-09 01:10:00,68.2,60.1,29.19,South,187,1.0,7.0,75,0.00,,,0.00,WUHU216DAVISVP2,2013-06-09 05:10:00,
2013-06-09 01:13:00,68.2,60.5,29.19,SSW,204,2.0,7.0,76,0.00,,,0.00,WUHU216DAVISVP2,2013-06-09 05:13:00,
2013-06-09 01:14:00,68.2,60.5,29.19,SSW,204,0.0,7.0,76,0.00,,,0.00,WUHU216DAVISVP2,2013-06-09 05:14:00,
2013-06-09 01:15:00,68.2,60.5,29.19,SSW,204,0.0,7.0,76,0.00,,,0.00,WUHU216DAVISVP2,2013-06-09 05:15:00,
2013-06-09 01:18:00,68.2,60.5,29.20,SSW,204,0.0,7.0,76,0.00,,,0.00,WUHU216DAVISVP2,2013-06-09 05:18:00,
2013-06-09 01:19:00,68.2,60.5,29.20,SSW,204,0.0,7.0,76,0.00,,,0.00,WUHU216DAVISVP2,2013-06-09 05:19:00,
2013-06-09 01:20:00,68.2,60.5,29.20,SSW,204,2.0,5.0,76,0.00,,,0.00,WUHU216DAVISVP2,2013-06-09 05:20:00,
2013-06-09 01:23:00,68.2,60.5,29.20,SSW,204,1.0,5.0,76,0.00,,,0.00,WUHU216DAVISVP2,2013-06-09 05:23:00,
2013-06-09 01:24:00,68.2,60.5,29.20,SSW,204,1.0,5.0,76,0.00,,,0.00,WUHU216DAVISVP2,2013-06-09 05:24:00,
2013-06-09 01:25:00,68.2,60.5,29.20,SSW,204,1.0,5.0,76,0.00,,,0.00,WUHU216DAVISVP2,2013-06-09 05:25:00,
2013-06-09 01:28:00,68.1,60.4,29.20,SSW,204,0.0,5.0,76,0.00,,,0.00,WUHU216DAVISVP2,2013-06-09 05:28:00,
2013-06-09 01:29:00,68.1,60.4,29.20,SSW,204,1.0,5.0,76,0.00,,,0.00,WUHU216DAVISVP2,2013-06-09 05:29:00,
2013-06-09 01:30:00,68.1,60.4,29.20,SSW,204,0.0,5.0,76,0.00,,,0.00,WUHU216DAVISVP2,2013-06-09 05:30:00,
2013-06-09 01:34:00,68.0,60.3,29.20,South,186,0.0,5.0,76,0.00,,,0.00,WUHU216DAVISVP2,2013-06-09 05:34:00,
2013-06-09 01:35:00,68.0,60.3,29.20,South,186,0.0,5.0,76,0.00,,,0.00,WUHU216DAVISVP2,2013-06-09 05:35:00,
2013-06-09 01:39:00,67.9,60.2,29.20,South,186,0.0,5.0,76,0.00,,,0.00,WUHU216DAVISVP2,2013-06-09 05:39:00,
2013-06-09 01:40:00,67.9,60.5,29.20,South,186,1.0,5.0,77,0.00,,,0.00,WUHU216DAVISVP2,2013-06-09 05:40:00,
2013-06-09 01:41:00,67.9,60.5,29.20,South,186,0.0,5.0,77,0.00,,,0.00,WUHU216DAVISVP2,2013-06-09 05:41:00,
2013-06-09 01:44:00,67.9,60.5,29.20,South,176,5.0,5.0,77,0.00,,,0.00,WUHU216DAVISVP2,2013-06-09 05:44:00,
2013-06-09 01:45:00,67.8,60.4,29.20,South,177,0.0,5.0,77,0.00,,,0.00,WUHU216DAVISVP2,2013-06-09 05:45:00,
2013-06-09 01:46:00,67.8,60.4,29.20,South,177,0.0,5.0,77,0.00,,,0.00,WUHU216DAVISVP2,2013-06-09 05:46:00,
2013-06-09 01:49:00,67.8,60.3,29.20,South,177,0.0,5.0,77,0.00,,,0.00,WUHU216DAVISVP2,2013-06-09 05:49:00,
2013-06-09 01:50:00,67.8,60.3,29.20,South,177,0.0,5.0,77,0.00,,,0.00,WUHU216DAVISVP2,2013-06-09 05:50:00,
2013-06-09 01:51:00,67.8,60.3,29.20,South,177,0.0,5.0,77,0.00,,,0.00,WUHU216DAVISVP2,2013-06-09 05:51:00,
2013-06-09 01:54:00,67.7,60.3,29.20,South,177,1.0,5.0,77,0.00,,,0.00,WUHU216DAVISVP2,2013-06-09 05:54:00,
2013-06-09 01:55:00,67.8,60.4,29.20,South,174,4.0,5.0,77,0.00,,,0.00,WUHU216DAVISVP2,2013-06-09 05:55:00,
2013-06-09 01:56:00,67.7,60.3,29.20,South,174,0.0,5.0,77,0.00,,,0.00,WUHU216DAVISVP2,2013-06-09 05:56:00,
2013-06-09 01:59:00,67.7,60.3,29.20,South,174,0.0,5.0,77,0.00,,,0.00,WUHU216DAVISVP2,2013-06-09 05:59:00,
2013-06-09 02:00:00,67.7,60.3,29.20,South,174,0.0,5.0,77,0.00,,,0.00,WUHU216DAVISVP2,2013-06-09 06:00:00,
2013-06-09 02:01:00,67.7,60.3,29.20,South,175,0.0,5.0,77,0.00,,,0.00,WUHU216DAVISVP2,2013-06-09 06:01:00,
2013-06-09 02:04:00,67.7,60.3,29.20,SSE,166,0.0,5.0,77,0.00,,,0.00,WUHU216DAVISVP2,2013-06-09 06:04:00,
2013-06-09 02:05:00,67.7,60.7,29.20,SSE,166,0.0,5.0,78,0.00,,,0.00,WUHU216DAVISVP2,2013-06-09 06:05:00,
2013-06-09 02:06:00,67.7,60.7,29.20,SSE,166,1.0,5.0,78,0.00,,,0.00,WUHU216DAVISVP2,2013-06-09 06:06:00,
2013-06-09 02:07:00,67.7,60.7,29.20,SSE,166,0.0,5.0,78,0.00,,,0.00,WUHU216DAVISVP2,2013-06-09 06:07:00,
2013-06-09 02:09:00,67.7,60.7,29.20,SSE,166,0.0,5.0,78,0.00,,,0.00,WUHU216DAVISVP2,2013-06-09 06:09:00,
2013-06-09 02:11:00,67.6,60.6,29.20,SSE,166,0.0,5.0,78,0.00,,,0.00,WUHU216DAVISVP2,2013-06-09 06:11:00,
2013-06-09 02:12:00,67.6,60.6,29.20,SSE,166,1.0,5.0,78,0.00,,,0.00,WUHU216DAVISVP2,2013-06-09 06:12:00,
2013-06-09 02:14:00,67.6,60.6,29.20,SSE,166,1.0,5.0,78,0.00,,,0.00,WUHU216DAVISVP2,2013-06-09 06:14:00,
2013-06-09 02:16:00,67.5,60.5,29.20,SSE,166,0.0,5.0,78,0.00,,,0.00,WUHU216DAVISVP2,2013-06-09 06:16:00,
2013-06-09 02:17:00,67.5,60.5,29.20,SSE,166,1.0,5.0,78,0.00,,,0.00,WUHU216DAVISVP2,2013-06-09 06:17:00,
2013-06-09 02:19:00,67.5,60.5,29.20,SSE,166,0.0,5.0,78,0.00,,,0.00,WUHU216DAVISVP2,2013-06-09 06:19:00,
2013-06-09 02:21:00,67.5,60.5,29.20,SSE,166,0.0,5.0,78,0.00,,,0.00,WUHU216DAVISVP2,2013-06-09 06:21:00,
2013-06-09 02:22:00,67.5,60.5,29.20,SSE,166,1.0,4.0,78,0.00,,,0.00,WUHU216DAVISVP2,2013-06-09 06:22:00,
2013-06-09 02:24:00,67.4,60.4,29.20,SSE,166,0.0,4.0,78,0.00,,,0.00,WUHU216DAVISVP2,2013-06-09 06:24:00,
2013-06-09 02:26:00,67.5,60.5,29.20,SSE,166,0.0,4.0,78,0.00,,,0.00,WUHU216DAVISVP2,2013-06-09 06:26:00,
2013-06-09 02:27:00,67.4,60.4,29.20,SSE,166,1.0,4.0,78,0.00,,,0.00,WUHU216DAVISVP2,2013-06-09 06:27:00,
2013-06-09 02:29:00,67.4,60.4,29.20,SE,137,2.0,5.0,78,0.00,,,0.00,WUHU216DAVISVP2,2013-06-09 06:29:00,
2013-06-09 02:31:00,67.4,60.4,29.19,SE,137,0.0,5.0,78,0.00,,,0.00,WUHU216DAVISVP2,2013-06-09 06:31:00,
2013-06-09 02:32:00,67.4,60.4,29.20,SE,137,0.0,5.0,78,0.00,,,0.00,WUHU216DAVISVP2,2013-06-09 06:32:00,
2013-06-09 02:34:00,67.4,60.4,29.19,SSE,161,3.0,5.0,78,0.00,,,0.00,WUHU216DAVISVP2,2013-06-09 06:34:00,
2013-06-09 02:37:00,67.4,60.4,29.19,SSE,160,3.0,5.0,78,0.00,,,0.00,WUHU216DAVISVP2,2013-06-09 06:37:00,
2013-06-09 02:40:00,67.4,60.7,29.19,SSE,160,0.0,5.0,79,0.00,,,0.00,WUHU216DAVISVP2,2013-06-09 06:40:00,
2013-06-09 02:42:00,67.4,60.7,29.19,SSE,160,0.0,5.0,79,0.00,,,0.00,WUHU216DAVISVP2,2013-06-09 06:42:00,
2013-06-09 02:43:00,67.4,60.7,29.19,SSE,161,0.0,5.0,79,0.00,,,0.00,WUHU216DAVISVP2,2013-06-09 06:43:00,
2013-06-09 02:45:00,67.4,60.7,29.19,SSE,160,0.0,5.0,79,0.00,,,0.00,WUHU216DAVISVP2,2013-06-09 06:45:00,
2013-06-09 02:47:00,67.3,60.6,29.19,SSE,160,0.0,5.0,79,0.00,,,0.00,WUHU216DAVISVP2,2013-06-09 06:47:00,
2013-06-09 02:48:00,67.3,60.6,29.19,SSE,160,0.0,4.0,79,0.00,,,0.00,WUHU216DAVISVP2,2013-06-09 06:48:00,
2013-06-09 02:50:00,67.4,60.7,29.19,SSE,160,1.0,4.0,79,0.00,,,0.00,WUHU216DAVISVP2,2013-06-09 06:50:00,
2013-06-09 02:52:00,67.4,60.7,29.19,SSE,160,0.0,4.0,79,0.00,,,0.00,WUHU216DAVISVP2,2013-06-09 06:52:00,
2013-06-09 02:53:00,67.4,60.7,29.19,SSE,160,0.0,4.0,79,0.00,,,0.00,WUHU216DAVISVP2,2013-06-09 06:53:00,
2013-06-09 02:56:00,67.4,60.7,29.19,SSE,161,0.0,4.0,79,0.00,,,0.00,WUHU216DAVISVP2,2013-06-09 06:56:00,
2013-06-09 02:57:00,67.4,60.7,29.19,SSE,160,1.0,5.0,79,0.00,,,0.00,WUHU216DAVISVP2,2013-06-09 06:57:00,
2013-06-09 02:58:00,67.4,60.7,29.19,SSE,161,0.0,5.0,79,0.00,,,0.00,WUHU216DAVISVP2,2013-06-09 06:58:00,
2013-06-09 03:01:00,67.4,60.7,29.19,SSE,160,0.0,5.0,79,0.00,,,0.00,WUHU216DAVISVP2,2013-06-09 07:01:00,
2013-06-09 03:03:00,67.3,60.6,29.19,SSE,160,1.0,5.0,79,0.00,,,0.00,WUHU216DAVISVP2,2013-06-09 07:03:00,
2013-06-09 03:04:00,67.3,60.6,29.19,SSE,160,4.0,5.0,79,0.00,,,0.00,WUHU216DAVISVP2,2013-06-09 07:04:00,
2013-06-09 03:06:00,67.3,60.6,29.19,SSE,161,2.0,5.0,79,0.00,,,0.00,WUHU216DAVISVP2,2013-06-09 07:06:00,
2013-06-09 03:08:00,67.4,60.7,29.19,SSE,160,0.0,5.0,79,0.00,,,0.00,WUHU216DAVISVP2,2013-06-09 07:08:00,
2013-06-09 03:09:00,67.4,60.7,29.19,South,169,2.0,5.0,79,0.00,,,0.00,WUHU216DAVISVP2,2013-06-09 07:09:00,
2013-06-09 03:11:00,67.4,60.4,29.19,SSE,164,2.0,5.0,78,0.00,,,0.00,WUHU216DAVISVP2,2013-06-09 07:11:00,
2013-06-09 03:13:00,67.4,60.4,29.19,SSE,164,1.0,5.0,78,0.00,,,0.00,WUHU216DAVISVP2,2013-06-09 07:13:00,
2013-06-09 03:14:00,67.4,60.4,29.19,SSE,164,0.0,5.0,78,0.00,,,0.00,WUHU216DAVISVP2,2013-06-09 07:14:00,
2013-06-09 03:17:00,67.4,60.4,29.19,SSE,164,0.0,5.0,78,0.00,,,0.00,WUHU216DAVISVP2,2013-06-09 07:17:00,
2013-06-09 03:18:00,67.4,60.4,29.19,SE,125,1.0,5.0,78,0.00,,,0.00,WUHU216DAVISVP2,2013-06-09 07:18:00,
2013-06-09 03:19:00,67.4,60.4,29.19,SE,124,0.0,5.0,78,0.00,,,0.00,WUHU216DAVISVP2,2013-06-09 07:19:00,
2013-06-09 03:22:00,67.4,60.4,29.19,SE,124,0.0,5.0,78,0.00,,,0.00,WUHU216DAVISVP2,2013-06-09 07:22:00,
2013-06-09 03:23:00,67.5,60.5,29.19,SE,124,0.0,5.0,78,0.00,,,0.00,WUHU216DAVISVP2,2013-06-09 07:23:00,
2013-06-09 03:24:00,67.4,60.4,29.19,SE,124,0.0,5.0,78,0.00,,,0.00,WUHU216DAVISVP2,2013-06-09 07:24:00,
2013-06-09 03:25:00,67.5,60.5,29.19,SE,125,0.0,5.0,78,0.00,,,0.00,WUHU216DAVISVP2,2013-06-09 07:25:00,
2013-06-09 03:27:00,67.5,60.5,29.19,SE,125,1.0,5.0,78,0.00,,,0.00,WUHU216DAVISVP2,2013-06-09 07:27:00,
2013-06-09 03:28:00,67.4,60.4,29.19,SE,124,0.0,5.0,78,0.00,,,0.00,WUHU216DAVISVP2,2013-06-09 07:28:00,
2013-06-09 03:29:00,67.5,60.5,29.19,SE,125,0.0,5.0,78,0.00,,,0.00,WUHU216DAVISVP2,2013-06-09 07:29:00,
2013-06-09 03:30:00,67.5,60.5,29.19,SE,125,0.0,5.0,78,0.00,,,0.00,WUHU216DAVISVP2,2013-06-09 07:30:00,
2013-06-09 03:32:00,67.4,60.4,29.19,SE,125,0.0,4.0,78,0.00,,,0.00,WUHU216DAVISVP2,2013-06-09 07:32:00,
2013-06-09 03:33:00,67.4,60.4,29.19,SE,124,0.0,4.0,78,0.00,,,0.00,WUHU216DAVISVP2,2013-06-09 07:33:00,
2013-06-09 03:34:00,67.4,60.4,29.19,SE,124,0.0,4.0,78,0.00,,,0.00,WUHU216DAVISVP2,2013-06-09 07:34:00,
2013-06-09 03:36:00,67.4,60.4,29.19,SE,125,0.0,4.0,78,0.00,,,0.00,WUHU216DAVISVP2,2013-06-09 07:36:00,
2013-06-09 03:37:00,67.4,60.4,29.19,SE,125,0.0,2.0,78,0.00,,,0.00,WUHU216DAVISVP2,2013-06-09 07:37:00,
2013-06-09 03:39:00,67.4,60.4,29.19,SE,125,0.0,2.0,78,0.00,,,0.00,WUHU216DAVISVP2,2013-06-09 07:39:00,
2013-06-09 03:41:00,67.4,60.7,29.19,SE,125,1.0,2.0,79,0.00,,,0.00,WUHU216DAVISVP2,2013-06-09 07:41:00,
2013-06-09 03:42:00,67.3,60.6,29.19,SE,125,0.0,2.0,79,0.00,,,0.00,WUHU216DAVISVP2,2013-06-09 07:42:00,
2013-06-09 03:44:00,67.3,60.6,29.19,SE,125,0.0,4.0,79,0.00,,,0.00,WUHU216DAVISVP2,2013-06-09 07:44:00,
2013-06-09 03:46:00,67.3,60.6,29.18,SE,124,2.0,4.0,79,0.00,,,0.00,WUHU216DAVISVP2,2013-06-09 07:46:00,
2013-06-09 03:47:00,67.3,60.6,29.18,SE,125,2.0,4.0,79,0.00,,,0.00,WUHU216DAVISVP2,2013-06-09 07:47:00,
2013-06-09 03:49:00,67.2,60.6,29.18,SE,125,0.0,4.0,79,0.00,,,0.00,WUHU216DAVISVP2,2013-06-09 07:49:00,
2013-06-09 03:50:00,67.2,60.6,29.18,SE,124,0.0,4.0,79,0.00,,,0.00,WUHU216DAVISVP2,2013-06-09 07:50:00,
2013-06-09 03:52:00,67.1,60.5,29.18,SE,125,1.0,4.0,79,0.00,,,0.00,WUHU216DAVISVP2,2013-06-09 07:52:00,
2013-06-09 03:54:00,67.1,60.5,29.18,SE,125,0.0,4.0,79,0.00,,,0.00,WUHU216DAVISVP2,2013-06-09 07:54:00,
2013-06-09 03:55:00,67.0,60.7,29.19,SE,125,1.0,4.0,80,0.00,,,0.00,WUHU216DAVISVP2,2013-06-09 07:55:00,
2013-06-09 03:57:00,67.0,60.7,29.19,SE,125,2.0,4.0,80,0.00,,,0.00,WUHU216DAVISVP2,2013-06-09 07:57:00,
2013-06-09 03:59:00,66.9,60.6,29.19,SE,125,1.0,4.0,80,0.00,,,0.00,WUHU216DAVISVP2,2013-06-09 07:59:00,
2013-06-09 04:00:00,66.9,60.6,29.19,SE,125,0.0,4.0,80,0.00,,,0.00,WUHU216DAVISVP2,2013-06-09 08:00:00,
2013-06-09 04:02:00,66.9,60.6,29.19,SE,125,1.0,4.0,80,0.00,,,0.00,WUHU216DAVISVP2,2013-06-09 08:02:00,
2013-06-09 04:03:00,66.9,60.6,29.19,SE,125,0.0,4.0,80,0.00,,,0.00,WUHU216DAVISVP2,2013-06-09 08:03:00,
2013-06-09 04:05:00,66.9,60.6,29.19,SE,144,0.0,4.0,80,0.00,,,0.00,WUHU216DAVISVP2,2013-06-09 08:05:00,
2013-06-09 04:07:00,66.9,60.6,29.19,SE,144,0.0,4.0,80,0.00,,,0.00,WUHU216DAVISVP2,2013-06-09 08:07:00,
2013-06-09 04:08:00,66.9,60.6,29.19,SE,144,0.0,4.0,80,0.00,,,0.00,WUHU216DAVISVP2,2013-06-09 08:08:00,
2013-06-09 04:10:00,66.8,60.5,29.19,SE,144,0.0,4.0,80,0.00,,,0.00,WUHU216DAVISVP2,2013-06-09 08:10:00,
2013-06-09 04:12:00,66.8,60.5,29.19,SE,137,4.0,5.0,80,0.00,,,0.00,WUHU216DAVISVP2,2013-06-09 08:12:00,
2013-06-09 04:13:00,66.8,60.5,29.19,SE,137,1.0,5.0,80,0.00,,,0.00,WUHU216DAVISVP2,2013-06-09 08:13:00,
2013-06-09 04:15:00,66.8,60.5,29.19,SE,137,0.0,5.0,80,0.00,,,0.00,WUHU216DAVISVP2,2013-06-09 08:15:00,
2013-06-09 04:17:00,66.8,60.5,29.19,SE,138,0.0,5.0,80,0.00,,,0.00,WUHU216DAVISVP2,2013-06-09 08:17:00,
2013-06-09 04:18:00,66.8,60.5,29.19,SE,137,0.0,5.0,80,0.00,,,0.00,WUHU216DAVISVP2,2013-06-09 08:18:00,
2013-06-09 04:20:00,66.7,60.4,29.18,SE,138,0.0,5.0,80,0.00,,,0.00,WUHU216DAVISVP2,2013-06-09 08:20:00,
2013-06-09 04:22:00,66.7,60.4,29.19,SE,138,1.0,5.0,80,0.00,,,0.00,WUHU216DAVISVP2,2013-06-09 08:22:00,
2013-06-09 04:23:00,66.7,60.4,29.19,SE,138,0.0,5.0,80,0.00,,,0.00,WUHU216DAVISVP2,2013-06-09 08:23:00,
2013-06-09 04:25:00,66.7,60.4,29.18,SE,138,1.0,5.0,80,0.00,,,0.00,WUHU216DAVISVP2,2013-06-09 08:25:00,
2013-06-09 04:27:00,66.7,60.4,29.19,SE,142,1.0,6.0,80,0.00,,,0.00,WUHU216DAVISVP2,2013-06-09 08:27:00,
2013-06-09 04:28:00,66.7,60.4,29.19,SE,142,0.0,6.0,80,0.00,,,0.00,WUHU216DAVISVP2,2013-06-09 08:28:00,
2013-06-09 04:30:00,66.7,60.4,29.19,SE,142,0.0,6.0,80,0.00,,,0.00,WUHU216DAVISVP2,2013-06-09 08:30:00,
2013-06-09 04:31:00,66.7,60.4,29.19,SE,142,1.0,6.0,80,0.00,,,0.00,WUHU216DAVISVP2,2013-06-09 08:31:00,
2013-06-09 04:32:00,66.7,60.4,29.19,SE,142,0.0,6.0,80,0.00,,,0.00,WUHU216DAVISVP2,2013-06-09 08:32:00,
2013-06-09 04:33:00,66.7,60.4,29.19,SE,142,0.0,6.0,80,0.00,,,0.00,WUHU216DAVISVP2,2013-06-09 08:33:00,
2013-06-09 04:35:00,66.7,60.4,29.19,SE,143,2.0,6.0,80,0.00,,,0.00,WUHU216DAVISVP2,2013-06-09 08:35:00,
2013-06-09 04:36:00,66.7,60.4,29.19,SE,143,1.0,6.0,80,0.00,,,0.00,WUHU216DAVISVP2,2013-06-09 08:36:00,
2013-06-09 04:37:00,66.7,60.4,29.19,SE,143,0.0,6.0,80,0.00,,,0.00,WUHU216DAVISVP2,2013-06-09 08:37:00,
2013-06-09 04:38:00,66.7,60.4,29.19,SE,143,0.0,6.0,80,0.00,,,0.00,WUHU216DAVISVP2,2013-06-09 08:38:00,
2013-06-09 04:39:00,66.7,60.4,29.19,SE,143,0.0,6.0,80,0.00,,,0.00,WUHU216DAVISVP2,2013-06-09 08:39:00,
2013-06-09 04:41:00,66.7,60.4,29.19,SE,143,4.0,6.0,80,0.00,,,0.00,WUHU216DAVISVP2,2013-06-09 08:41:00,
2013-06-09 04:42:00,66.7,60.4,29.19,SE,143,0.0,6.0,80,0.00,,,0.00,WUHU216DAVISVP2,2013-06-09 08:42:00,
2013-06-09 04:43:00,66.7,60.4,29.19,SE,143,1.0,6.0,80,0.00,,,0.00,WUHU216DAVISVP2,2013-06-09 08:43:00,
2013-06-09 04:44:00,66.7,60.4,29.19,SE,143,0.0,6.0,80,0.00,,,0.00,WUHU216DAVISVP2,2013-06-09 08:44:00,
2013-06-09 04:46:00,66.8,60.5,29.19,SE,143,1.0,5.0,80,0.00,,,0.00,WUHU216DAVISVP2,2013-06-09 08:46:00,
2013-06-09 04:47:00,66.7,60.4,29.19,SE,143,0.0,5.0,80,0.00,,,0.00,WUHU216DAVISVP2,2013-06-09 08:47:00,
2013-06-09 04:48:00,66.8,60.2,29.19,SE,143,0.0,5.0,79,0.00,,,0.00,WUHU216DAVISVP2,2013-06-09 08:48:00,
2013-06-09 04:50:00,66.8,60.2,29.19,SE,143,0.0,5.0,79,0.00,,,0.00,WUHU216DAVISVP2,2013-06-09 08:50:00,
2013-06-09 04:51:00,66.8,60.2,29.19,SE,143,0.0,5.0,79,0.00,,,0.00,WUHU216DAVISVP2,2013-06-09 08:51:00,
2013-06-09 04:52:00,66.8,60.2,29.19,SE,143,0.0,5.0,79,0.00,,,0.00,WUHU216DAVISVP2,2013-06-09 08:52:00,
2013-06-09 04:53:00,66.8,60.2,29.19,SE,143,0.0,5.0,79,0.00,,,0.00,WUHU216DAVISVP2,2013-06-09 08:53:00,
2013-06-09 04:55:00,66.8,60.2,29.19,SE,143,0.0,5.0,79,0.00,,,0.00,WUHU216DAVISVP2,2013-06-09 08:55:00,
2013-06-09 04:56:00,66.8,60.2,29.19,SE,143,0.0,5.0,79,0.00,,,0.00,WUHU216DAVISVP2,2013-06-09 08:56:00,
2013-06-09 04:58:00,66.8,60.2,29.20,SE,143,0.0,5.0,79,0.00,,,0.00,WUHU216DAVISVP2,2013-06-09 08:58:00,
2013-06-09 05:00:00,66.9,60.3,29.19,SE,143,0.0,4.0,79,0.00,,,0.00,WUHU216DAVISVP2,2013-06-09 09:00:00,
2013-06-09 05:01:00,66.9,60.3,29.20,SE,143,0.0,4.0,79,0.00,,,0.00,WUHU216DAVISVP2,2013-06-09 09:01:00,
2013-06-09 05:03:00,66.9,60.3,29.20,SE,143,0.0,4.0,79,0.00,,,0.00,WUHU216DAVISVP2,2013-06-09 09:03:00,
2013-06-09 05:04:00,67.0,60.4,29.20,SE,143,0.0,4.0,79,0.00,,,0.00,WUHU216DAVISVP2,2013-06-09 09:04:00,
2013-06-09 05:05:00,67.0,60.4,29.20,SE,143,0.0,2.0,79,0.00,,,0.00,WUHU216DAVISVP2,2013-06-09 09:05:00,
2013-06-09 05:06:00,67.0,60.4,29.20,SE,143,0.0,2.0,79,0.00,,,0.00,WUHU216DAVISVP2,2013-06-09 09:06:00,
2013-06-09 05:08:00,67.0,60.4,29.20,SE,143,2.0,2.0,79,0.00,,,0.00,WUHU216DAVISVP2,2013-06-09 09:08:00,
2013-06-09 05:09:00,67.0,60.4,29.20,SE,143,1.0,4.0,79,0.00,,,0.00,WUHU216DAVISVP2,2013-06-09 09:09:00,
2013-06-09 05:10:00,67.0,60.4,29.20,SE,143,1.0,4.0,79,0.00,,,0.00,WUHU216DAVISVP2,2013-06-09 09:10:00,
2013-06-09 05:12:00,67.0,60.4,29.20,SE,143,0.0,4.0,79,0.00,,,0.00,WUHU216DAVISVP2,2013-06-09 09:12:00,
2013-06-09 05:13:00,67.0,60.4,29.20,SE,143,0.0,4.0,79,0.00,,,0.00,WUHU216DAVISVP2,2013-06-09 09:13:00,
2013-06-09 05:14:00,67.0,60.4,29.20,SE,143,2.0,4.0,79,0.00,,,0.00,WUHU216DAVISVP2,2013-06-09 09:14:00,
2013-06-09 05:15:00,67.0,60.4,29.20,SE,143,2.0,4.0,79,0.00,,,0.00,WUHU216DAVISVP2,2013-06-09 09:15:00,
2013-06-09 05:17:00,67.0,60.4,29.20,SE,143,0.0,4.0,79,0.00,,,0.00,WUHU216DAVISVP2,2013-06-09 09:17:00,
2013-06-09 05:18:00,67.0,60.4,29.20,SE,143,1.0,4.0,79,0.00,,,0.00,WUHU216DAVISVP2,2013-06-09 09:18:00,
2013-06-09 05:19:00,67.0,60.4,29.20,SE,143,1.0,4.0,79,0.00,,,0.00,WUHU216DAVISVP2,2013-06-09 09:19:00,
2013-06-09 05:20:00,66.9,60.3,29.20,SE,143,0.0,4.0,79,0.00,,,0.00,WUHU216DAVISVP2,2013-06-09 09:20:00,
2013-06-09 05:22:00,66.9,60.3,29.20,SE,143,1.0,4.0,79,0.00,,,0.00,WUHU216DAVISVP2,2013-06-09 09:22:00,
2013-06-09 05:23:00,66.8,60.1,29.20,SE,143,0.0,4.0,79,0.00,,,0.00,WUHU216DAVISVP2,2013-06-09 09:23:00,
2013-06-09 05:24:00,66.9,60.2,29.20,SE,143,0.0,4.0,79,0.00,,,0.00,WUHU216DAVISVP2,2013-06-09 09:24:00,
2013-06-09 05:25:00,66.8,60.1,29.20,SE,143,0.0,4.0,79,0.00,,,0.00,WUHU216DAVISVP2,2013-06-09 09:25:00,
2013-06-09 05:27:00,66.8,60.1,29.20,SE,143,1.0,4.0,79,0.00,,,0.00,WUHU216DAVISVP2,2013-06-09 09:27:00,
2013-06-09 05:29:00,66.7,60.0,29.20,SE,124,2.0,4.0,79,0.00,,,0.00,WUHU216DAVISVP2,2013-06-09 09:29:00,
2013-06-09 05:30:00,66.7,60.3,29.20,SE,125,2.0,4.0,80,0.00,,,0.00,WUHU216DAVISVP2,2013-06-09 09:30:00,
2013-06-09 05:33:00,66.6,60.3,29.20,SE,135,2.0,4.0,80,0.00,,,0.00,WUHU216DAVISVP2,2013-06-09 09:33:00,
2013-06-09 05:34:00,66.6,60.3,29.20,SE,145,4.0,4.0,80,0.00,,,0.00,WUHU216DAVISVP2,2013-06-09 09:34:00,
2013-06-09 05:35:00,66.6,60.3,29.20,SSE,156,4.0,4.0,80,0.00,,,0.00,WUHU216DAVISVP2,2013-06-09 09:35:00,
2013-06-09 05:36:00,66.5,60.2,29.20,SSE,156,2.0,4.0,80,0.00,,,0.00,WUHU216DAVISVP2,2013-06-09 09:36:00,
2013-06-09 05:38:00,66.5,60.2,29.20,SSE,156,0.0,4.0,80,0.00,,,0.00,WUHU216DAVISVP2,2013-06-09 09:38:00,
2013-06-09 05:39:00,66.5,60.6,29.20,SSE,156,0.0,4.0,81,0.00,,,0.00,WUHU216DAVISVP2,2013-06-09 09:39:00,
2013-06-09 05:40:00,66.5,60.6,29.20,SSE,156,0.0,4.0,81,0.00,,,0.00,WUHU216DAVISVP2,2013-06-09 09:40:00,
2013-06-09 05:42:00,66.4,60.5,29.20,SSE,156,0.0,4.0,81,0.00,,,0.00,WUHU216DAVISVP2,2013-06-09 09:42:00,
2013-06-09 05:43:00,66.3,60.4,29.19,SSE,156,0.0,4.0,81,0.00,,,0.00,WUHU216DAVISVP2,2013-06-09 09:43:00,
2013-06-09 05:44:00,66.3,60.4,29.19,SSE,156,0.0,4.0,81,0.00,,,0.00,WUHU216DAVISVP2,2013-06-09 09:44:00,
2013-06-09 05:45:00,66.3,60.4,29.20,SSE,156,0.0,4.0,81,0.00,,,0.00,WUHU216DAVISVP2,2013-06-09 09:45:00,
2013-06-09 05:47:00,66.3,60.4,29.20,SSE,156,0.0,4.0,81,0.00,,,0.00,WUHU216DAVISVP2,2013-06-09 09:47:00,
2013-06-09 05:49:00,66.2,60.3,29.20,SSE,156,1.0,4.0,81,0.00,,,0.00,WUHU216DAVISVP2,2013-06-09 09:49:00,
2013-06-09 05:50:00,66.1,60.2,29.20,SSE,156,0.0,4.0,81,0.00,,,0.00,WUHU216DAVISVP2,2013-06-09 09:50:00,
2013-06-09 05:51:00,66.1,60.2,29.20,SSE,156,0.0,4.0,81,0.00,,,0.00,WUHU216DAVISVP2,2013-06-09 09:51:00,
2013-06-09 05:52:00,66.0,60.1,29.20,SSE,156,0.0,4.0,81,0.00,,,0.00,WUHU216DAVISVP2,2013-06-09 09:52:00,
2013-06-09 05:54:00,66.0,60.1,29.20,SSE,156,0.0,4.0,81,0.00,,,0.00,WUHU216DAVISVP2,2013-06-09 09:54:00,
2013-06-09 05:55:00,65.9,60.0,29.20,SSE,156,0.0,4.0,81,0.00,,,0.00,WUHU216DAVISVP2,2013-06-09 09:55:00,
2013-06-09 05:56:00,65.9,60.0,29.20,SSE,156,0.0,1.0,81,0.00,,,0.00,WUHU216DAVISVP2,2013-06-09 09:56:00,
2013-06-09 05:57:00,65.9,60.3,29.20,SSE,156,0.0,1.0,82,0.00,,,0.00,WUHU216DAVISVP2,2013-06-09 09:57:00,
2013-06-09 05:59:00,65.8,60.2,29.20,SSE,156,0.0,1.0,82,0.00,,,0.00,WUHU216DAVISVP2,2013-06-09 09:59:00,
2013-06-09 06:00:00,65.8,60.2,29.20,SSE,156,0.0,1.0,82,0.00,,,0.00,WUHU216DAVISVP2,2013-06-09 10:00:00,
2013-06-09 06:01:00,65.8,60.2,29.20,SSE,156,0.0,1.0,82,0.00,,,0.00,WUHU216DAVISVP2,2013-06-09 10:01:00,
2013-06-09 06:02:00,65.7,60.1,29.20,SSE,156,0.0,1.0,82,0.00,,,0.00,WUHU216DAVISVP2,2013-06-09 10:02:00,
2013-06-09 06:05:00,65.6,60.0,29.20,SSE,156,0.0,1.0,82,0.00,,,0.00,WUHU216DAVISVP2,2013-06-09 10:05:00,
2013-06-09 06:06:00,65.5,59.9,29.20,SSE,156,0.0,1.0,82,0.00,,,0.00,WUHU216DAVISVP2,2013-06-09 10:06:00,
2013-06-09 06:07:00,65.5,59.9,29.20,SSE,156,1.0,1.0,82,0.00,,,0.00,WUHU216DAVISVP2,2013-06-09 10:07:00,
2013-06-09 06:08:00,65.4,59.8,29.20,SSE,149,1.0,2.0,82,0.00,,,0.00,WUHU216DAVISVP2,2013-06-09 10:08:00,
2013-06-09 06:10:00,65.4,59.8,29.19,SSE,149,0.0,2.0,82,0.00,,,0.00,WUHU216DAVISVP2,2013-06-09 10:10:00,
2013-06-09 06:11:00,65.4,59.8,29.20,SSE,149,0.0,2.0,82,0.00,,,0.00,WUHU216DAVISVP2,2013-06-09 10:11:00,
2013-06-09 06:12:00,65.3,60.0,29.20,SSE,149,0.0,2.0,83,0.00,,,0.00,WUHU216DAVISVP2,2013-06-09 10:12:00,
2013-06-09 06:13:00,65.3,60.0,29.20,SSE,149,0.0,2.0,83,0.00,,,0.00,WUHU216DAVISVP2,2013-06-09 10:13:00,
2013-06-09 06:15:00,65.2,59.9,29.20,SSE,149,0.0,2.0,83,0.00,,,0.00,WUHU216DAVISVP2,2013-06-09 10:15:00,
2013-06-09 06:16:00,65.2,59.9,29.20,SSE,149,0.0,2.0,83,0.00,,,0.00,WUHU216DAVISVP2,2013-06-09 10:16:00,
2013-06-09 06:17:00,65.2,59.9,29.20,SSE,149,0.0,2.0,83,0.00,,,0.00,WUHU216DAVISVP2,2013-06-09 10:17:00,
2013-06-09 06:18:00,65.1,59.8,29.20,SSE,149,0.0,2.0,83,0.00,,,0.00,WUHU216DAVISVP2,2013-06-09 10:18:00,
2013-06-09 06:20:00,65.0,59.7,29.20,SSE,149,0.0,2.0,83,0.00,,,0.00,WUHU216DAVISVP2,2013-06-09 10:20:00,
2013-06-09 06:22:00,65.0,59.7,29.20,SSE,149,0.0,2.0,83,0.00,,,0.00,WUHU216DAVISVP2,2013-06-09 10:22:00,
2013-06-09 06:23:00,64.9,59.6,29.20,SSE,149,0.0,2.0,83,0.00,,,0.00,WUHU216DAVISVP2,2013-06-09 10:23:00,
2013-06-09 06:25:00,64.9,60.0,29.20,SSE,149,0.0,2.0,84,0.00,,,0.00,WUHU216DAVISVP2,2013-06-09 10:25:00,
2013-06-09 06:26:00,64.9,60.0,29.20,SSE,149,0.0,2.0,84,0.00,,,0.00,WUHU216DAVISVP2,2013-06-09 10:26:00,
2013-06-09 06:27:00,64.8,59.9,29.20,SSE,149,0.0,2.0,84,0.00,,,0.00,WUHU216DAVISVP2,2013-06-09 10:27:00,
2013-06-09 06:28:00,64.8,59.9,29.20,SSE,149,0.0,1.0,84,0.00,,,0.00,WUHU216DAVISVP2,2013-06-09 10:28:00,
2013-06-09 06:31:00,64.7,59.8,29.20,SSE,149,0.0,1.0,84,0.00,,,0.00,WUHU216DAVISVP2,2013-06-09 10:31:00,
2013-06-09 06:32:00,64.8,59.9,29.20,SSE,149,0.0,1.0,84,0.00,,,0.00,WUHU216DAVISVP2,2013-06-09 10:32:00,
2013-06-09 06:33:00,64.7,59.8,29.20,SSE,149,0.0,1.0,84,0.00,,,0.00,WUHU216DAVISVP2,2013-06-09 10:33:00,
2013-06-09 06:36:00,64.6,60.0,29.20,SSE,149,0.0,1.0,85,0.00,,,0.00,WUHU216DAVISVP2,2013-06-09 10:36:00,
2013-06-09 06:37:00,64.6,60.0,29.20,SSE,149,0.0,1.0,85,0.00,,,0.00,WUHU216DAVISVP2,2013-06-09 10:37:00,
2013-06-09 06:38:00,64.6,60.0,29.20,SSE,149,0.0,1.0,85,0.00,,,0.00,WUHU216DAVISVP2,2013-06-09 10:38:00,
2013-06-09 06:41:00,64.6,60.0,29.20,SSE,149,0.0,1.0,85,0.00,,,0.00,WUHU216DAVISVP2,2013-06-09 10:41:00,
2013-06-09 06:42:00,64.6,60.0,29.20,SSE,149,0.0,1.0,85,0.00,,,0.00,WUHU216DAVISVP2,2013-06-09 10:42:00,
2013-06-09 06:43:00,64.5,59.9,29.20,SSE,149,0.0,1.0,85,0.00,,,0.00,WUHU216DAVISVP2,2013-06-09 10:43:00,
2013-06-09 06:46:00,64.5,59.9,29.20,SSE,149,0.0,1.0,85,0.00,,,0.00,WUHU216DAVISVP2,2013-06-09 10:46:00,
2013-06-09 06:47:00,64.5,59.9,29.20,SSE,149,0.0,1.0,85,0.00,,,0.00,WUHU216DAVISVP2,2013-06-09 10:47:00,
2013-06-09 06:48:00,64.5,59.9,29.21,SSE,149,1.0,2.0,85,0.00,,,0.00,WUHU216DAVISVP2,2013-06-09 10:48:00,
2013-06-09 06:51:00,64.5,59.9,29.21,SSE,149,2.0,4.0,85,0.00,,,0.00,WUHU216DAVISVP2,2013-06-09 10:51:00,
2013-06-09 06:52:00,64.5,59.9,29.21,SSE,149,2.0,4.0,85,0.00,,,0.00,WUHU216DAVISVP2,2013-06-09 10:52:00,
2013-06-09 06:53:00,64.5,59.9,29.21,SSE,149,2.0,4.0,85,0.00,,,0.00,WUHU216DAVISVP2,2013-06-09 10:53:00,
2013-06-09 06:54:00,64.5,59.9,29.21,SSE,149,0.0,4.0,85,0.00,,,0.00,WUHU216DAVISVP2,2013-06-09 10:54:00,
2013-06-09 06:56:00,64.5,59.9,29.21,SSE,149,0.0,4.0,85,0.00,,,0.00,WUHU216DAVISVP2,2013-06-09 10:56:00,
2013-06-09 06:57:00,64.6,60.0,29.21,SSE,149,0.0,4.0,85,0.00,,,0.00,WUHU216DAVISVP2,2013-06-09 10:57:00,
2013-06-09 06:58:00,64.6,60.0,29.21,SSE,149,0.0,4.0,85,0.00,,,0.00,WUHU216DAVISVP2,2013-06-09 10:58:00,
2013-06-09 06:59:00,64.6,60.0,29.21,SSE,149,0.0,4.0,85,0.00,,,0.00,WUHU216DAVISVP2,2013-06-09 10:59:00,
2013-06-09 07:01:00,64.6,60.0,29.21,SSE,149,0.0,4.0,85,0.00,,,0.00,WUHU216DAVISVP2,2013-06-09 11:01:00,
2013-06-09 07:02:00,64.6,60.0,29.21,SSE,149,0.0,4.0,85,0.00,,,0.00,WUHU216DAVISVP2,2013-06-09 11:02:00,
2013-06-09 07:03:00,64.6,60.0,29.21,SSE,149,0.0,4.0,85,0.00,,,0.00,WUHU216DAVISVP2,2013-06-09 11:03:00,
2013-06-09 07:04:00,64.6,60.0,29.21,SSE,149,0.0,4.0,85,0.00,,,0.00,WUHU216DAVISVP2,2013-06-09 11:04:00,
2013-06-09 07:06:00,64.6,60.0,29.21,SSE,149,0.0,4.0,85,0.00,,,0.00,WUHU216DAVISVP2,2013-06-09 11:06:00,
2013-06-09 07:08:00,64.6,60.3,29.21,SSE,149,0.0,4.0,86,0.00,,,0.00,WUHU216DAVISVP2,2013-06-09 11:08:00,
2013-06-09 07:10:00,64.7,60.4,29.21,SSE,149,0.0,4.0,86,0.00,,,0.00,WUHU216DAVISVP2,2013-06-09 11:10:00,
2013-06-09 07:11:00,64.7,60.4,29.21,SSE,149,0.0,4.0,86,0.00,,,0.00,WUHU216DAVISVP2,2013-06-09 11:11:00,
2013-06-09 07:13:00,64.6,60.0,29.21,SSE,149,1.0,2.0,85,0.00,,,0.00,WUHU216DAVISVP2,2013-06-09 11:13:00,
2013-06-09 07:14:00,64.6,60.0,29.21,SSE,149,2.0,2.0,85,0.00,,,0.00,WUHU216DAVISVP2,2013-06-09 11:14:00,
2013-06-09 07:15:00,64.6,60.0,29.21,SSE,149,2.0,2.0,85,0.00,,,0.00,WUHU216DAVISVP2,2013-06-09 11:15:00,
2013-06-09 07:16:00,64.6,60.0,29.21,SE,137,3.0,4.0,85,0.00,,,0.00,WUHU216DAVISVP2,2013-06-09 11:16:00,
2013-06-09 07:19:00,64.7,60.1,29.21,SE,146,2.0,4.0,85,0.00,,,0.00,WUHU216DAVISVP2,2013-06-09 11:19:00,
2013-06-09 07:20:00,64.7,60.1,29.21,SSE,147,0.0,4.0,85,0.00,,,0.00,WUHU216DAVISVP2,2013-06-09 11:20:00,
2013-06-09 07:22:00,64.8,60.2,29.21,SE,146,1.0,4.0,85,0.00,,,0.00,WUHU216DAVISVP2,2013-06-09 11:22:00,
2013-06-09 07:24:00,64.8,60.2,29.21,SE,139,1.0,4.0,85,0.00,,,0.00,WUHU216DAVISVP2,2013-06-09 11:24:00,
2013-06-09 07:25:00,64.8,60.2,29.21,SE,134,1.0,4.0,85,0.00,,,0.00,WUHU216DAVISVP2,2013-06-09 11:25:00,
2013-06-09 07:27:00,64.9,60.3,29.22,SE,135,2.0,4.0,85,0.00,,,0.00,WUHU216DAVISVP2,2013-06-09 11:27:00,
2013-06-09 07:29:00,64.9,60.3,29.22,SE,138,1.0,4.0,85,0.00,,,0.00,WUHU216DAVISVP2,2013-06-09 11:29:00,
2013-06-09 07:30:00,64.9,60.3,29.22,SE,139,1.0,4.0,85,0.00,,,0.00,WUHU216DAVISVP2,2013-06-09 11:30:00,
2013-06-09 07:33:00,65.0,60.1,29.21,SE,139,0.0,4.0,84,0.00,,,0.00,WUHU216DAVISVP2,2013-06-09 11:33:00,
2013-06-09 07:34:00,65.0,60.4,29.21,SE,139,0.0,4.0,85,0.00,,,0.00,WUHU216DAVISVP2,2013-06-09 11:34:00,
2013-06-09 07:35:00,65.1,60.5,29.21,SE,139,0.0,4.0,85,0.00,,,0.00,WUHU216DAVISVP2,2013-06-09 11:35:00,
2013-06-09 07:38:00,65.1,60.2,29.21,SE,127,1.0,5.0,84,0.00,,,0.00,WUHU216DAVISVP2,2013-06-09 11:38:00,
2013-06-09 07:39:00,65.2,60.3,29.21,SE,129,2.0,5.0,84,0.00,,,0.00,WUHU216DAVISVP2,2013-06-09 11:39:00,
2013-06-09 07:40:00,65.2,60.3,29.21,SE,129,1.0,5.0,84,0.00,,,0.00,WUHU216DAVISVP2,2013-06-09 11:40:00,
2013-06-09 07:43:00,65.2,60.3,29.21,SE,137,0.0,5.0,84,0.00,,,0.00,WUHU216DAVISVP2,2013-06-09 11:43:00,
2013-06-09 07:44:00,65.3,60.4,29.21,SE,134,2.0,5.0,84,0.00,,,0.00,WUHU216DAVISVP2,2013-06-09 11:44:00,
2013-06-09 07:45:00,65.3,60.4,29.21,SE,132,4.0,5.0,84,0.00,,,0.00,WUHU216DAVISVP2,2013-06-09 11:45:00,
2013-06-09 07:49:00,65.3,60.3,29.21,SSE,151,2.0,5.0,84,0.00,,,0.00,WUHU216DAVISVP2,2013-06-09 11:49:00,
2013-06-09 07:50:00,65.4,60.4,29.21,SSE,147,2.0,5.0,84,0.00,,,0.00,WUHU216DAVISVP2,2013-06-09 11:50:00,
2013-06-09 07:51:00,65.4,60.4,29.21,SSE,155,2.0,5.0,84,0.00,,,0.00,WUHU216DAVISVP2,2013-06-09 11:51:00,
2013-06-09 07:54:00,65.5,60.5,29.21,ESE,114,0.0,5.0,84,0.00,,,0.00,WUHU216DAVISVP2,2013-06-09 11:54:00,
2013-06-09 07:55:00,65.5,60.5,29.21,ESE,114,1.0,5.0,84,0.00,,,0.00,WUHU216DAVISVP2,2013-06-09 11:55:00,
2013-06-09 07:56:00,65.6,60.6,29.21,ESE,114,1.0,5.0,84,0.00,,,0.00,WUHU216DAVISVP2,2013-06-09 11:56:00,
2013-06-09 07:59:00,65.7,60.8,29.20,ESE,121,1.0,5.0,84,0.00,,,0.00,WUHU216DAVISVP2,2013-06-09 11:59:00,
2013-06-09 08:00:00,65.7,60.8,29.20,ESE,121,4.0,5.0,84,0.00,,,0.00,WUHU216DAVISVP2,2013-06-09 12:00:00,
2013-06-09 08:02:00,65.8,60.9,29.20,SSE,164,2.0,5.0,84,0.00,,,0.00,WUHU216DAVISVP2,2013-06-09 12:02:00,
2013-06-09 08:04:00,65.9,60.9,29.20,SSE,163,4.0,5.0,84,0.00,,,0.00,WUHU216DAVISVP2,2013-06-09 12:04:00,
2013-06-09 08:05:00,65.9,60.9,29.20,SSE,159,4.0,5.0,84,0.00,,,0.00,WUHU216DAVISVP2,2013-06-09 12:05:00,
2013-06-09 08:07:00,66.0,61.0,29.20,SSE,159,1.0,5.0,84,0.00,,,0.00,WUHU216DAVISVP2,2013-06-09 12:07:00,
2013-06-09 08:09:00,66.1,61.1,29.20,SSE,165,5.0,5.0,84,0.00,,,0.00,WUHU216DAVISVP2,2013-06-09 12:09:00,
2013-06-09 08:10:00,66.1,61.1,29.20,ESE,112,2.0,6.0,84,0.00,,,0.00,WUHU216DAVISVP2,2013-06-09 12:10:00,
2013-06-09 08:11:00,66.2,60.9,29.20,SSE,149,3.0,6.0,83,0.00,,,0.00,WUHU216DAVISVP2,2013-06-09 12:11:00,
2013-06-09 08:12:00,66.2,60.9,29.20,SSE,149,1.0,6.0,83,0.00,,,0.00,WUHU216DAVISVP2,2013-06-09 12:12:00,
2013-06-09 08:14:00,66.4,61.1,29.20,SE,136,2.0,6.0,83,0.00,,,0.00,WUHU216DAVISVP2,2013-06-09 12:14:00,
2013-06-09 08:15:00,66.4,61.1,29.20,SSE,156,3.0,6.0,83,0.00,,,0.00,WUHU216DAVISVP2,2013-06-09 12:15:00,
2013-06-09 08:16:00,66.5,61.2,29.20,SSE,154,2.0,6.0,83,0.00,,,0.00,WUHU216DAVISVP2,2013-06-09 12:16:00,
2013-06-09 08:17:00,66.5,61.2,29.20,SSE,167,2.0,6.0,83,0.00,,,0.00,WUHU216DAVISVP2,2013-06-09 12:17:00,
2013-06-09 08:18:00,66.5,61.2,29.20,SSE,167,3.0,6.0,83,0.00,,,0.00,WUHU216DAVISVP2,2013-06-09 12:18:00,
2013-06-09 08:20:00,66.7,61.4,29.20,SSE,167,4.0,6.0,83,0.00,,,0.00,WUHU216DAVISVP2,2013-06-09 12:20:00,
2013-06-09 08:21:00,66.7,61.4,29.20,SSE,167,2.0,6.0,83,0.00,,,0.00,WUHU216DAVISVP2,2013-06-09 12:21:00,
2013-06-09 08:22:00,66.8,61.5,29.20,South,169,4.0,7.0,83,0.00,,,0.00,WUHU216DAVISVP2,2013-06-09 12:22:00,
2013-06-09 08:23:00,66.8,61.5,29.20,South,169,2.0,7.0,83,0.00,,,0.00,WUHU216DAVISVP2,2013-06-09 12:23:00,
2013-06-09 08:25:00,66.8,61.5,29.20,SSE,152,3.0,7.0,83,0.00,,,0.00,WUHU216DAVISVP2,2013-06-09 12:25:00,
2013-06-09 08:27:00,67.0,61.4,29.20,SSE,154,2.0,7.0,82,0.00,,,0.00,WUHU216DAVISVP2,2013-06-09 12:27:00,
2013-06-09 08:28:00,67.0,61.4,29.20,SSE,154,2.0,7.0,82,0.00,,,0.00,WUHU216DAVISVP2,2013-06-09 12:28:00,
2013-06-09 08:30:00,67.1,61.4,29.20,SW,214,2.0,7.0,82,0.00,,,0.00,WUHU216DAVISVP2,2013-06-09 12:30:00,
2013-06-09 08:32:00,67.2,61.5,29.20,SSW,212,4.0,7.0,82,0.00,,,0.00,WUHU216DAVISVP2,2013-06-09 12:32:00,
2013-06-09 08:33:00,67.3,61.6,29.20,South,170,0.0,7.0,82,0.00,,,0.00,WUHU216DAVISVP2,2013-06-09 12:33:00,
2013-06-09 08:35:00,67.4,61.7,29.20,South,170,4.0,7.0,82,0.00,,,0.00,WUHU216DAVISVP2,2013-06-09 12:35:00,
2013-06-09 08:37:00,67.5,61.8,29.20,South,170,2.0,7.0,82,0.00,,,0.00,WUHU216DAVISVP2,2013-06-09 12:37:00,
2013-06-09 08:38:00,67.5,61.9,29.20,South,170,0.0,7.0,82,0.00,,,0.00,WUHU216DAVISVP2,2013-06-09 12:38:00,
2013-06-09 08:40:00,67.7,62.1,29.20,South,170,2.0,7.0,82,0.00,,,0.00,WUHU216DAVISVP2,2013-06-09 12:40:00,
2013-06-09 08:41:00,67.7,62.1,29.20,South,170,2.0,6.0,82,0.00,,,0.00,WUHU216DAVISVP2,2013-06-09 12:41:00,
2013-06-09 08:42:00,67.8,62.2,29.20,South,170,0.0,5.0,82,0.00,,,0.00,WUHU216DAVISVP2,2013-06-09 12:42:00,
2013-06-09 08:43:00,67.9,62.3,29.21,South,170,1.0,5.0,82,0.00,,,0.00,WUHU216DAVISVP2,2013-06-09 12:43:00,
2013-06-09 08:45:00,67.9,61.9,29.21,South,174,5.0,6.0,81,0.00,,,0.00,WUHU216DAVISVP2,2013-06-09 12:45:00,
2013-06-09 08:46:00,68.0,62.0,29.20,South,174,0.0,6.0,81,0.00,,,0.00,WUHU216DAVISVP2,2013-06-09 12:46:00,
2013-06-09 08:47:00,68.0,62.0,29.20,South,174,4.0,6.0,81,0.00,,,0.00,WUHU216DAVISVP2,2013-06-09 12:47:00,
2013-06-09 08:48:00,68.1,62.0,29.20,South,174,1.0,6.0,81,0.00,,,0.00,WUHU216DAVISVP2,2013-06-09 12:48:00,
2013-06-09 08:50:00,68.1,62.0,29.20,South,174,1.0,6.0,81,0.00,,,0.00,WUHU216DAVISVP2,2013-06-09 12:50:00,
2013-06-09 08:52:00,68.2,62.1,29.20,South,174,1.0,6.0,81,0.00,,,0.00,WUHU216DAVISVP2,2013-06-09 12:52:00,
2013-06-09 08:53:00,68.2,62.1,29.20,South,174,0.0,6.0,81,0.00,,,0.00,WUHU216DAVISVP2,2013-06-09 12:53:00,
2013-06-09 08:54:00,68.3,62.2,29.20,South,174,0.0,6.0,81,0.00,,,0.00,WUHU216DAVISVP2,2013-06-09 12:54:00,
2013-06-09 08:55:00,68.3,62.2,29.20,South,174,0.0,6.0,81,0.00,,,0.00,WUHU216DAVISVP2,2013-06-09 12:55:00,
2013-06-09 08:57:00,68.4,62.4,29.20,South,174,1.0,6.0,81,0.00,,,0.00,WUHU216DAVISVP2,2013-06-09 12:57:00,
2013-06-09 08:58:00,68.4,62.4,29.20,South,174,1.0,6.0,81,0.00,,,0.00,WUHU216DAVISVP2,2013-06-09 12:58:00,
2013-06-09 08:59:00,68.4,62.4,29.20,South,174,0.0,6.0,81,0.00,,,0.00,WUHU216DAVISVP2,2013-06-09 12:59:00,
2013-06-09 09:00:00,68.4,62.4,29.21,South,174,2.0,6.0,81,0.00,,,0.00,WUHU216DAVISVP2,2013-06-09 13:00:00,
2013-06-09 09:02:00,68.5,62.5,29.20,South,174,0.0,6.0,81,0.00,,,0.00,WUHU216DAVISVP2,2013-06-09 13:02:00,
2013-06-09 09:03:00,68.5,62.5,29.20,South,174,1.0,6.0,81,0.00,,,0.00,WUHU216DAVISVP2,2013-06-09 13:03:00,
2013-06-09 09:04:00,68.5,62.5,29.20,South,173,0.0,5.0,81,0.00,,,0.00,WUHU216DAVISVP2,2013-06-09 13:04:00,
2013-06-09 09:05:00,68.6,62.6,29.20,South,174,1.0,5.0,81,0.00,,,0.00,WUHU216DAVISVP2,2013-06-09 13:05:00,
2013-06-09 09:08:00,68.7,62.6,29.20,SSE,159,4.0,5.0,81,0.00,,,0.00,WUHU216DAVISVP2,2013-06-09 13:08:00,
2013-06-09 09:09:00,68.7,62.6,29.20,SSE,158,2.0,5.0,81,0.00,,,0.00,WUHU216DAVISVP2,2013-06-09 13:09:00,
2013-06-09 09:10:00,68.7,62.6,29.20,SSE,160,4.0,5.0,81,0.00,,,0.00,WUHU216DAVISVP2,2013-06-09 13:10:00,
2013-06-09 09:11:00,68.7,62.7,29.20,SSE,158,5.0,6.0,81,0.00,,,0.00,WUHU216DAVISVP2,2013-06-09 13:11:00,
2013-06-09 09:13:00,68.8,62.8,29.20,SSE,154,5.0,6.0,81,0.00,,,0.00,WUHU216DAVISVP2,2013-06-09 13:13:00,
2013-06-09 09:14:00,68.8,62.8,29.20,SSE,156,2.0,6.0,81,0.00,,,0.00,WUHU216DAVISVP2,2013-06-09 13:14:00,
2013-06-09 09:15:00,68.8,62.8,29.20,SSE,168,2.0,6.0,81,0.00,,,0.00,WUHU216DAVISVP2,2013-06-09 13:15:00,
2013-06-09 09:16:00,68.8,62.8,29.20,SSE,162,4.0,6.0,81,0.00,,,0.00,WUHU216DAVISVP2,2013-06-09 13:16:00,
2013-06-09 09:18:00,68.9,62.6,29.20,SSE,158,0.0,6.0,80,0.00,,,0.00,WUHU216DAVISVP2,2013-06-09 13:18:00,
2013-06-09 09:19:00,68.9,62.6,29.20,SSE,158,5.0,6.0,80,0.00,,,0.00,WUHU216DAVISVP2,2013-06-09 13:19:00,
2013-06-09 09:20:00,69.0,62.7,29.20,SE,131,0.0,6.0,80,0.00,,,0.00,WUHU216DAVISVP2,2013-06-09 13:20:00,
2013-06-09 09:21:00,69.0,62.7,29.19,SE,130,0.0,6.0,80,0.00,,,0.00,WUHU216DAVISVP2,2013-06-09 13:21:00,
2013-06-09 09:23:00,69.1,62.7,29.20,SSE,147,2.0,6.0,80,0.00,,,0.00,WUHU216DAVISVP2,2013-06-09 13:23:00,
2013-06-09 09:24:00,69.2,62.8,29.20,SSE,150,2.0,6.0,80,0.00,,,0.00,WUHU216DAVISVP2,2013-06-09 13:24:00,
2013-06-09 09:25:00,69.3,62.9,29.20,SSW,193,4.0,6.0,80,0.00,,,0.00,WUHU216DAVISVP2,2013-06-09 13:25:00,
2013-06-09 09:26:00,69.3,62.9,29.20,SSW,193,4.0,6.0,80,0.00,,,0.00,WUHU216DAVISVP2,2013-06-09 13:26:00,
2013-06-09 09:29:00,69.4,63.0,29.20,South,172,2.0,6.0,80,0.00,,,0.00,WUHU216DAVISVP2,2013-06-09 13:29:00,
2013-06-09 09:30:00,69.4,63.0,29.20,SSE,166,4.0,6.0,80,0.00,,,0.00,WUHU216DAVISVP2,2013-06-09 13:30:00,
2013-06-09 09:31:00,69.5,62.8,29.20,South,169,6.0,6.0,79,0.00,,,0.00,WUHU216DAVISVP2,2013-06-09 13:31:00,
2013-06-09 09:34:00,69.5,62.8,29.20,SW,224,2.0,6.0,79,0.00,,,0.00,WUHU216DAVISVP2,2013-06-09 13:34:00,
2013-06-09 09:36:00,69.6,63.2,29.20,South,191,2.0,6.0,80,0.00,,,0.00,WUHU216DAVISVP2,2013-06-09 13:36:00,
2013-06-09 09:39:00,69.7,63.0,29.20,SSE,147,1.0,6.0,79,0.00,,,0.00,WUHU216DAVISVP2,2013-06-09 13:39:00,
2013-06-09 09:41:00,69.7,62.9,29.20,SSE,147,0.0,6.0,79,0.00,,,0.00,WUHU216DAVISVP2,2013-06-09 13:41:00,
2013-06-09 09:42:00,69.7,62.9,29.20,SSE,147,0.0,6.0,79,0.00,,,0.00,WUHU216DAVISVP2,2013-06-09 13:42:00,
2013-06-09 09:44:00,69.8,63.0,29.20,SSW,197,1.0,6.0,79,0.00,,,0.00,WUHU216DAVISVP2,2013-06-09 13:44:00,
2013-06-09 09:45:00,69.8,63.0,29.20,SSE,156,4.0,6.0,79,0.00,,,0.00,WUHU216DAVISVP2,2013-06-09 13:45:00,
2013-06-09 09:46:00,69.8,63.0,29.19,SSE,160,5.0,7.0,79,0.00,,,0.00,WUHU216DAVISVP2,2013-06-09 13:46:00,
2013-06-09 09:47:00,69.8,63.0,29.20,SSE,158,2.0,7.0,79,0.00,,,0.00,WUHU216DAVISVP2,2013-06-09 13:47:00,
2013-06-09 09:50:00,69.9,63.2,29.20,SE,145,3.0,7.0,79,0.00,,,0.00,WUHU216DAVISVP2,2013-06-09 13:50:00,
2013-06-09 09:51:00,70.0,63.3,29.20,SSE,154,0.0,7.0,79,0.00,,,0.00,WUHU216DAVISVP2,2013-06-09 13:51:00,
2013-06-09 09:52:00,70.0,63.3,29.20,SSE,154,0.0,7.0,79,0.00,,,0.00,WUHU216DAVISVP2,2013-06-09 13:52:00,
2013-06-09 09:55:00,70.1,63.4,29.19,SE,133,3.0,7.0,79,0.00,,,0.00,WUHU216DAVISVP2,2013-06-09 13:55:00,
2013-06-09 09:57:00,70.1,63.3,29.19,SE,141,0.0,7.0,79,0.00,,,0.00,WUHU216DAVISVP2,2013-06-09 13:57:00,
2013-06-09 10:00:00,70.2,63.4,29.19,South,183,1.0,7.0,79,0.00,,,0.00,WUHU216DAVISVP2,2013-06-09 14:00:00,
2013-06-09 10:02:00,70.3,63.5,29.19,South,183,0.0,7.0,79,0.00,,,0.00,WUHU216DAVISVP2,2013-06-09 14:02:00,
2013-06-09 10:05:00,70.3,63.5,29.20,SSE,166,5.0,6.0,79,0.00,,,0.00,WUHU216DAVISVP2,2013-06-09 14:05:00,
2013-06-09 10:06:00,70.3,63.5,29.20,SSE,155,3.0,6.0,79,0.00,,,0.00,WUHU216DAVISVP2,2013-06-09 14:06:00,
2013-06-09 10:07:00,70.3,63.6,29.20,SSE,158,2.0,6.0,79,0.00,,,0.00,WUHU216DAVISVP2,2013-06-09 14:07:00,
2013-06-09 10:10:00,70.4,63.7,29.20,SE,129,3.0,6.0,79,0.00,,,0.00,WUHU216DAVISVP2,2013-06-09 14:10:00,
2013-06-09 10:11:00,70.4,63.7,29.20,SE,132,2.0,6.0,79,0.00,,,0.00,WUHU216DAVISVP2,2013-06-09 14:11:00,
2013-06-09 10:12:00,70.4,63.7,29.20,SE,132,4.0,6.0,79,0.00,,,0.00,WUHU216DAVISVP2,2013-06-09 14:12:00,
2013-06-09 10:16:00,70.4,63.6,29.20,SSW,206,2.0,6.0,79,0.00,,,0.00,WUHU216DAVISVP2,2013-06-09 14:16:00,
2013-06-09 10:17:00,70.4,63.6,29.19,SSW,206,2.0,6.0,79,0.00,,,0.00,WUHU216DAVISVP2,2013-06-09 14:17:00,
2013-06-09 10:21:00,70.5,63.7,29.19,SSW,206,1.0,6.0,79,0.00,,,0.00,WUHU216DAVISVP2,2013-06-09 14:21:00,
2013-06-09 10:22:00,70.5,63.7,29.19,SSW,206,1.0,6.0,79,0.00,,,0.00,WUHU216DAVISVP2,2013-06-09 14:22:00,
2013-06-09 10:23:00,70.5,63.7,29.19,SSW,206,4.0,6.0,79,0.00,,,0.00,WUHU216DAVISVP2,2013-06-09 14:23:00,
2013-06-09 10:26:00,70.7,63.9,29.19,South,187,1.0,5.0,79,0.00,,,0.00,WUHU216DAVISVP2,2013-06-09 14:26:00,
2013-06-09 10:27:00,70.7,64.0,29.19,South,187,2.0,5.0,79,0.00,,,0.00,WUHU216DAVISVP2,2013-06-09 14:27:00,
2013-06-09 10:28:00,70.7,63.6,29.19,SSW,193,2.0,5.0,78,0.00,,,0.00,WUHU216DAVISVP2,2013-06-09 14:28:00,
2013-06-09 10:31:00,70.9,63.8,29.19,SSW,193,1.0,5.0,78,0.00,,,0.00,WUHU216DAVISVP2,2013-06-09 14:31:00,
2013-06-09 10:32:00,70.9,64.2,29.19,SSW,193,2.0,5.0,79,0.00,,,0.00,WUHU216DAVISVP2,2013-06-09 14:32:00,
2013-06-09 10:33:00,71.0,64.3,29.19,SSW,193,4.0,5.0,79,0.00,,,0.00,WUHU216DAVISVP2,2013-06-09 14:33:00,
2013-06-09 10:36:00,71.1,63.9,29.18,SSW,197,2.0,5.0,78,0.00,,,0.00,WUHU216DAVISVP2,2013-06-09 14:36:00,
2013-06-09 10:37:00,71.2,64.0,29.18,SSW,197,0.0,5.0,78,0.00,,,0.00,WUHU216DAVISVP2,2013-06-09 14:37:00,
2013-06-09 10:38:00,71.2,64.4,29.18,SSW,197,0.0,5.0,79,0.00,,,0.00,WUHU216DAVISVP2,2013-06-09 14:38:00,
2013-06-09 10:42:00,71.7,64.5,29.18,SSW,197,0.0,5.0,78,0.00,,,0.00,WUHU216DAVISVP2,2013-06-09 14:42:00,
2013-06-09 10:43:00,71.9,64.7,29.18,SSW,197,4.0,5.0,78,0.00,,,0.00,WUHU216DAVISVP2,2013-06-09 14:43:00,
2013-06-09 10:47:00,72.2,64.7,29.19,ESE,110,2.0,6.0,77,0.00,,,0.00,WUHU216DAVISVP2,2013-06-09 14:47:00,
2013-06-09 10:48:00,72.3,64.8,29.19,ESE,111,2.0,6.0,77,0.00,,,0.00,WUHU216DAVISVP2,2013-06-09 14:48:00,
2013-06-09 10:52:00,72.8,64.9,29.18,ESE,114,5.0,6.0,76,0.00,,,0.00,WUHU216DAVISVP2,2013-06-09 14:52:00,
2013-06-09 10:53:00,72.9,64.7,29.18,ESE,110,4.0,6.0,75,0.00,,,0.00,WUHU216DAVISVP2,2013-06-09 14:53:00,
2013-06-09 10:54:00,73.0,65.0,29.18,ESE,109,5.0,6.0,76,0.00,,,0.00,WUHU216DAVISVP2,2013-06-09 14:54:00,
2013-06-09 10:58:00,73.6,65.9,29.18,East,94,0.0,6.0,77,0.00,,,0.00,WUHU216DAVISVP2,2013-06-09 14:58:00,
2013-06-09 11:00:00,73.9,65.5,29.18,ESE,122,4.0,6.0,75,0.00,,,0.00,WUHU216DAVISVP2,2013-06-09 15:00:00,
2013-06-09 11:03:00,74.1,64.9,29.18,ESE,107,0.0,6.0,73,0.00,,,0.00,WUHU216DAVISVP2,2013-06-09 15:03:00,
2013-06-09 11:04:00,74.1,65.3,29.18,SSW,211,3.0,6.0,74,0.00,,,0.00,WUHU216DAVISVP2,2013-06-09 15:04:00,
2013-06-09 11:05:00,74.2,65.0,29.18,South,189,2.0,11.0,73,0.00,,,0.00,WUHU216DAVISVP2,2013-06-09 15:05:00,
2013-06-09 11:08:00,73.8,64.8,29.18,South,191,7.0,11.0,73,0.00,,,0.00,WUHU216DAVISVP2,2013-06-09 15:08:00,
2013-06-09 11:09:00,73.7,64.7,29.19,SSW,201,2.0,11.0,73,0.00,,,0.00,WUHU216DAVISVP2,2013-06-09 15:09:00,
2013-06-09 11:10:00,73.7,65.1,29.19,SSW,193,2.0,11.0,74,0.00,,,0.00,WUHU216DAVISVP2,2013-06-09 15:10:00,
2013-06-09 11:14:00,73.5,64.3,29.19,SSW,195,5.0,11.0,73,0.00,,,0.00,WUHU216DAVISVP2,2013-06-09 15:14:00,
2013-06-09 11:15:00,73.4,64.6,29.19,South,185,5.0,11.0,74,0.00,,,0.00,WUHU216DAVISVP2,2013-06-09 15:15:00,
2013-06-09 11:19:00,73.3,64.1,29.19,South,178,1.0,11.0,73,0.00,,,0.00,WUHU216DAVISVP2,2013-06-09 15:19:00,
2013-06-09 11:20:00,73.2,64.4,29.19,South,180,1.0,11.0,74,0.00,,,0.00,WUHU216DAVISVP2,2013-06-09 15:20:00,
2013-06-09 11:24:00,73.1,63.9,29.19,SSW,213,6.0,8.0,73,0.00,,,0.00,WUHU216DAVISVP2,2013-06-09 15:24:00,
2013-06-09 11:25:00,73.1,64.1,29.19,SSW,213,1.0,8.0,73,0.00,,,0.00,WUHU216DAVISVP2,2013-06-09 15:25:00,
2013-06-09 11:29:00,73.0,64.0,29.19,WSW,242,4.0,8.0,73,0.00,,,0.00,WUHU216DAVISVP2,2013-06-09 15:29:00,
2013-06-09 11:30:00,73.1,63.9,29.19,SW,227,0.0,8.0,73,0.00,,,0.00,WUHU216DAVISVP2,2013-06-09 15:30:00,
2013-06-09 11:35:00,73.2,64.6,29.19,SW,217,6.0,8.0,74,0.00,,,0.00,WUHU216DAVISVP2,2013-06-09 15:35:00,
2013-06-09 11:40:00,73.1,64.1,29.19,SW,218,0.0,8.0,73,0.00,,,0.00,WUHU216DAVISVP2,2013-06-09 15:40:00,
2013-06-09 11:45:00,73.3,64.1,29.19,SW,218,1.0,8.0,73,0.00,,,0.00,WUHU216DAVISVP2,2013-06-09 15:45:00,
2013-06-09 11:46:00,73.4,64.8,29.19,SW,218,0.0,8.0,74,0.00,,,0.00,WUHU216DAVISVP2,2013-06-09 15:46:00,
2013-06-09 11:50:00,73.5,64.5,29.19,West,266,2.0,8.0,73,0.00,,,0.00,WUHU216DAVISVP2,2013-06-09 15:50:00,
2013-06-09 11:52:00,73.5,64.3,29.19,West,266,6.0,8.0,73,0.00,,,0.00,WUHU216DAVISVP2,2013-06-09 15:52:00,
2013-06-09 11:55:00,73.7,64.9,29.19,West,266,3.0,6.0,74,0.00,,,0.00,WUHU216DAVISVP2,2013-06-09 15:55:00,
2013-06-09 11:58:00,73.9,64.7,29.19,West,265,2.0,6.0,73,0.00,,,0.00,WUHU216DAVISVP2,2013-06-09 15:58:00,
2013-06-09 12:00:00,74.0,64.2,29.19,West,265,1.0,6.0,71,0.00,,,0.00,WUHU216DAVISVP2,2013-06-09 16:00:00,
2013-06-09 12:01:00,74.0,64.2,29.19,WSW,256,2.0,6.0,71,0.00,,,0.00,WUHU216DAVISVP2,2013-06-09 16:01:00,
2013-06-09 12:03:00,74.2,64.4,29.19,WSW,256,4.0,6.0,71,0.00,,,0.00,WUHU216DAVISVP2,2013-06-09 16:03:00,
2013-06-09 12:05:00,74.3,63.7,29.19,SW,231,6.0,9.0,69,0.00,,,0.00,WUHU216DAVISVP2,2013-06-09 16:05:00,
2013-06-09 12:06:00,74.3,63.7,29.19,SW,231,6.0,9.0,69,0.00,,,0.00,WUHU216DAVISVP2,2013-06-09 16:06:00,
2013-06-09 12:08:00,74.4,63.8,29.19,SSW,212,3.0,9.0,69,0.00,,,0.00,WUHU216DAVISVP2,2013-06-09 16:08:00,
2013-06-09 12:11:00,74.6,63.8,29.19,SSW,213,2.0,9.0,69,0.00,,,0.00,WUHU216DAVISVP2,2013-06-09 16:11:00,
2013-06-09 12:14:00,74.8,63.5,29.19,South,186,7.0,9.0,68,0.00,,,0.00,WUHU216DAVISVP2,2013-06-09 16:14:00,
2013-06-09 12:16:00,75.0,63.7,29.19,SW,218,1.0,9.0,68,0.00,,,0.00,WUHU216DAVISVP2,2013-06-09 16:16:00,
2013-06-09 12:19:00,75.1,63.6,29.19,WSW,247,5.0,9.0,67,0.00,,,0.00,WUHU216DAVISVP2,2013-06-09 16:19:00,
2013-06-09 12:21:00,75.1,63.6,29.19,WSW,243,5.0,9.0,67,0.00,,,0.00,WUHU216DAVISVP2,2013-06-09 16:21:00,
2013-06-09 12:22:00,75.2,64.1,29.19,WSW,247,5.0,9.0,68,0.00,,,0.00,WUHU216DAVISVP2,2013-06-09 16:22:00,
2013-06-09 12:24:00,75.5,64.8,29.19,SW,236,1.0,9.0,69,0.00,,,0.00,WUHU216DAVISVP2,2013-06-09 16:24:00,
2013-06-09 12:26:00,75.8,63.9,29.18,ESE,120,0.0,9.0,66,0.00,,,0.00,WUHU216DAVISVP2,2013-06-09 16:26:00,
2013-06-09 12:27:00,76.0,63.6,29.18,SSE,158,7.0,9.0,65,0.00,,,0.00,WUHU216DAVISVP2,2013-06-09 16:27:00,
2013-06-09 12:29:00,76.2,63.8,29.18,WSW,243,3.0,9.0,65,0.00,,,0.00,WUHU216DAVISVP2,2013-06-09 16:29:00,
2013-06-09 12:31:00,76.3,63.5,29.18,WSW,252,1.0,9.0,64,0.00,,,0.00,WUHU216DAVISVP2,2013-06-09 16:31:00,
2013-06-09 12:32:00,76.3,63.5,29.18,WSW,252,3.0,9.0,64,0.00,,,0.00,WUHU216DAVISVP2,2013-06-09 16:32:00,
2013-06-09 12:33:00,76.5,64.5,29.18,South,181,4.0,9.0,66,0.00,,,0.00,WUHU216DAVISVP2,2013-06-09 16:33:00,
2013-06-09 12:35:00,76.7,63.8,29.18,SSE,150,9.0,9.0,64,0.00,,,0.00,WUHU216DAVISVP2,2013-06-09 16:35:00,
2013-06-09 12:36:00,76.8,63.0,29.18,South,170,4.0,9.0,62,0.00,,,0.00,WUHU216DAVISVP2,2013-06-09 16:36:00,
2013-06-09 12:37:00,76.8,63.0,29.18,South,170,2.0,9.0,62,0.00,,,0.00,WUHU216DAVISVP2,2013-06-09 16:37:00,
2013-06-09 12:38:00,76.8,63.5,29.18,SW,215,1.0,9.0,63,0.00,,,0.00,WUHU216DAVISVP2,2013-06-09 16:38:00,
2013-06-09 12:40:00,76.9,63.1,29.18,South,173,5.0,11.0,62,0.00,,,0.00,WUHU216DAVISVP2,2013-06-09 16:40:00,
2013-06-09 12:41:00,76.9,63.1,29.18,SSW,202,3.0,11.0,62,0.00,,,0.00,WUHU216DAVISVP2,2013-06-09 16:41:00,
2013-06-09 12:42:00,76.9,62.2,29.18,SW,220,4.0,11.0,60,0.00,,,0.00,WUHU216DAVISVP2,2013-06-09 16:42:00,
2013-06-09 12:43:00,76.8,62.1,29.18,SW,220,4.0,11.0,60,0.00,,,0.00,WUHU216DAVISVP2,2013-06-09 16:43:00,
2013-06-09 12:45:00,76.8,62.6,29.18,SW,220,0.0,11.0,61,0.00,,,0.00,WUHU216DAVISVP2,2013-06-09 16:45:00,
2013-06-09 12:46:00,76.9,62.6,29.18,SW,220,0.0,11.0,61,0.00,,,0.00,WUHU216DAVISVP2,2013-06-09 16:46:00,
2013-06-09 12:47:00,77.0,62.7,29.18,SW,220,4.0,11.0,61,0.00,,,0.00,WUHU216DAVISVP2,2013-06-09 16:47:00,
2013-06-09 12:48:00,77.1,62.8,29.17,SE,126,3.0,11.0,61,0.00,,,0.00,WUHU216DAVISVP2,2013-06-09 16:48:00,
2013-06-09 12:50:00,77.2,61.5,29.17,South,179,3.0,11.0,58,0.00,,,0.00,WUHU216DAVISVP2,2013-06-09 16:50:00,
2013-06-09 12:52:00,77.3,62.1,29.17,South,173,4.0,11.0,59,0.00,,,0.00,WUHU216DAVISVP2,2013-06-09 16:52:00,
2013-06-09 12:53:00,77.2,62.5,29.17,South,176,5.0,11.0,60,0.00,,,0.00,WUHU216DAVISVP2,2013-06-09 16:53:00,
2013-06-09 12:55:00,77.1,61.9,29.17,South,176,4.0,11.0,59,0.00,,,0.00,WUHU216DAVISVP2,2013-06-09 16:55:00,
2013-06-09 12:57:00,77.1,61.9,29.17,South,176,0.0,11.0,59,0.00,,,0.00,WUHU216DAVISVP2,2013-06-09 16:57:00,
2013-06-09 12:58:00,77.0,61.8,29.17,South,176,1.0,11.0,59,0.00,,,0.00,WUHU216DAVISVP2,2013-06-09 16:58:00,
2013-06-09 12:59:00,77.0,61.8,29.17,South,176,4.0,8.0,59,0.00,,,0.00,WUHU216DAVISVP2,2013-06-09 16:59:00,
2013-06-09 13:00:00,77.0,62.3,29.17,SSE,149,4.0,8.0,60,0.00,,,0.00,WUHU216DAVISVP2,2013-06-09 17:00:00,
2013-06-09 13:02:00,76.9,62.2,29.17,SSE,152,4.0,8.0,60,0.00,,,0.00,WUHU216DAVISVP2,2013-06-09 17:02:00,
2013-06-09 13:03:00,76.9,62.2,29.17,South,184,5.0,8.0,60,0.00,,,0.00,WUHU216DAVISVP2,2013-06-09 17:03:00,
2013-06-09 13:04:00,76.9,62.6,29.17,South,189,2.0,8.0,61,0.00,,,0.00,WUHU216DAVISVP2,2013-06-09 17:04:00,
2013-06-09 13:05:00,76.8,63.0,29.17,South,189,0.0,8.0,62,0.00,,,0.00,WUHU216DAVISVP2,2013-06-09 17:05:00,
2013-06-09 13:07:00,76.8,63.0,29.17,South,189,1.0,8.0,62,0.00,,,0.00,WUHU216DAVISVP2,2013-06-09 17:07:00,
2013-06-09 13:08:00,76.8,63.0,29.17,South,189,0.0,8.0,62,0.00,,,0.00,WUHU216DAVISVP2,2013-06-09 17:08:00,
2013-06-09 13:09:00,76.8,63.0,29.17,SSW,196,2.0,8.0,62,0.00,,,0.00,WUHU216DAVISVP2,2013-06-09 17:09:00,
2013-06-09 13:10:00,76.8,62.6,29.17,South,190,4.0,8.0,61,0.00,,,0.00,WUHU216DAVISVP2,2013-06-09 17:10:00,
2013-06-09 13:12:00,76.7,61.5,29.16,SSE,165,4.0,7.0,59,0.00,,,0.00,WUHU216DAVISVP2,2013-06-09 17:12:00,
2013-06-09 13:13:00,76.7,61.5,29.16,South,176,2.0,7.0,59,0.00,,,0.00,WUHU216DAVISVP2,2013-06-09 17:13:00,
2013-06-09 13:14:00,76.7,62.0,29.16,South,176,1.0,7.0,60,0.00,,,0.00,WUHU216DAVISVP2,2013-06-09 17:14:00,
2013-06-09 13:15:00,76.7,62.0,29.16,South,176,1.0,7.0,60,0.00,,,0.00,WUHU216DAVISVP2,2013-06-09 17:15:00,
2013-06-09 13:17:00,76.7,62.0,29.16,South,185,1.0,7.0,60,0.00,,,0.00,WUHU216DAVISVP2,2013-06-09 17:17:00,
2013-06-09 13:19:00,76.7,62.0,29.16,SSW,205,0.0,7.0,60,0.00,,,0.00,WUHU216DAVISVP2,2013-06-09 17:19:00,
2013-06-09 13:20:00,76.7,62.5,29.16,SSW,205,2.0,7.0,61,0.00,,,0.00,WUHU216DAVISVP2,2013-06-09 17:20:00,
2013-06-09 13:22:00,76.7,61.0,29.16,SSW,205,0.0,7.0,58,0.00,,,0.00,WUHU216DAVISVP2,2013-06-09 17:22:00,
2013-06-09 13:24:00,76.9,61.7,29.16,SSW,205,1.0,7.0,59,0.00,,,0.00,WUHU216DAVISVP2,2013-06-09 17:24:00,
2013-06-09 13:25:00,77.0,61.8,29.16,SSW,205,5.0,7.0,59,0.00,,,0.00,WUHU216DAVISVP2,2013-06-09 17:25:00,
2013-06-09 13:27:00,77.2,62.0,29.15,SW,217,2.0,7.0,59,0.00,,,0.00,WUHU216DAVISVP2,2013-06-09 17:27:00,
2013-06-09 13:29:00,77.3,61.6,29.15,South,182,1.0,7.0,58,0.00,,,0.00,WUHU216DAVISVP2,2013-06-09 17:29:00,
2013-06-09 13:30:00,77.4,61.7,29.15,West,268,6.0,7.0,58,0.00,,,0.00,WUHU216DAVISVP2,2013-06-09 17:30:00,
2013-06-09 13:32:00,77.8,61.0,29.15,SSW,201,5.0,8.0,56,0.00,,,0.00,WUHU216DAVISVP2,2013-06-09 17:32:00,
2013-06-09 13:34:00,78.0,59.6,29.15,South,184,7.0,10.0,53,0.00,,,0.00,WUHU216DAVISVP2,2013-06-09 17:34:00,
2013-06-09 13:35:00,78.1,59.2,29.15,South,191,5.0,11.0,52,0.00,,,0.00,WUHU216DAVISVP2,2013-06-09 17:35:00,
2013-06-09 13:36:00,78.2,59.8,29.15,WSW,253,9.0,11.0,53,0.00,,,0.00,WUHU216DAVISVP2,2013-06-09 17:36:00,
2013-06-09 13:38:00,78.5,59.0,29.15,South,181,7.0,12.0,51,0.00,,,0.00,WUHU216DAVISVP2,2013-06-09 17:38:00,
2013-06-09 13:39:00,78.6,58.4,29.15,SSE,168,6.0,12.0,50,0.00,,,0.00,WUHU216DAVISVP2,2013-06-09 17:39:00,
2013-06-09 13:40:00,78.6,58.4,29.15,SW,220,5.0,12.0,50,0.00,,,0.00,WUHU216DAVISVP2,2013-06-09 17:40:00,
2013-06-09 13:41:00,78.7,58.5,29.15,SW,216,4.0,12.0,50,0.00,,,0.00,WUHU216DAVISVP2,2013-06-09 17:41:00,
2013-06-09 13:43:00,78.7,57.9,29.15,SSE,168,2.0,12.0,49,0.00,,,0.00,WUHU216DAVISVP2,2013-06-09 17:43:00,
2013-06-09 13:44:00,78.7,58.0,29.15,SSE,166,4.0,12.0,49,0.00,,,0.00,WUHU216DAVISVP2,2013-06-09 17:44:00,
2013-06-09 13:45:00,78.7,58.0,29.15,SSW,212,3.0,12.0,49,0.00,,,0.00,WUHU216DAVISVP2,2013-06-09 17:45:00,
2013-06-09 13:47:00,78.7,58.0,29.15,SW,217,5.0,12.0,49,0.00,,,0.00,WUHU216DAVISVP2,2013-06-09 17:47:00,
2013-06-09 13:48:00,78.8,58.7,29.15,SSW,198,6.0,12.0,50,0.00,,,0.00,WUHU216DAVISVP2,2013-06-09 17:48:00,
2013-06-09 13:49:00,78.8,57.5,29.15,SSW,197,3.0,12.0,48,0.00,,,0.00,WUHU216DAVISVP2,2013-06-09 17:49:00,
2013-06-09 13:50:00,78.8,58.1,29.15,SSW,201,2.0,12.0,49,0.00,,,0.00,WUHU216DAVISVP2,2013-06-09 17:50:00,
2013-06-09 13:52:00,78.8,58.1,29.15,South,187,9.0,12.0,49,0.00,,,0.00,WUHU216DAVISVP2,2013-06-09 17:52:00,
2013-06-09 13:53:00,78.8,58.7,29.14,WSW,249,11.0,12.0,50,0.00,,,0.00,WUHU216DAVISVP2,2013-06-09 17:53:00,
2013-06-09 13:55:00,78.8,58.1,29.14,WSW,245,12.0,13.0,49,0.00,,,0.00,WUHU216DAVISVP2,2013-06-09 17:55:00,
2013-06-09 13:57:00,78.8,58.0,29.14,SSW,200,3.0,14.0,49,0.00,,,0.00,WUHU216DAVISVP2,2013-06-09 17:57:00,
2013-06-09 13:58:00,78.9,58.1,29.14,SSW,209,4.0,14.0,49,0.00,,,0.00,WUHU216DAVISVP2,2013-06-09 17:58:00,
2013-06-09 14:00:00,79.0,58.8,29.14,South,190,0.0,14.0,50,0.00,,,0.00,WUHU216DAVISVP2,2013-06-09 18:00:00,
2013-06-09 14:02:00,78.9,57.0,29.14,South,181,3.0,14.0,47,0.00,,,0.00,WUHU216DAVISVP2,2013-06-09 18:02:00,
2013-06-09 14:03:00,78.9,57.0,29.14,South,181,3.0,14.0,47,0.00,,,0.00,WUHU216DAVISVP2,2013-06-09 18:03:00,
2013-06-09 14:05:00,78.9,58.2,29.14,SSW,194,4.0,14.0,49,0.00,,,0.00,WUHU216DAVISVP2,2013-06-09 18:05:00,
2013-06-09 14:07:00,78.8,58.1,29.14,WSW,242,1.0,14.0,49,0.00,,,0.00,WUHU216DAVISVP2,2013-06-09 18:07:00,
2013-06-09 14:08:00,78.7,58.0,29.14,WSW,242,0.0,14.0,49,0.00,,,0.00,WUHU216DAVISVP2,2013-06-09 18:08:00,
2013-06-09 14:10:00,78.7,58.0,29.14,South,189,5.0,14.0,49,0.00,,,0.00,WUHU216DAVISVP2,2013-06-09 18:10:00,
2013-06-09 14:11:00,78.7,58.6,29.14,South,188,6.0,14.0,50,0.00,,,0.00,WUHU216DAVISVP2,2013-06-09 18:11:00,
2013-06-09 14:13:00,78.7,57.4,29.14,South,181,8.0,14.0,48,0.00,,,0.00,WUHU216DAVISVP2,2013-06-09 18:13:00,
2013-06-09 14:14:00,78.7,58.0,29.14,SSW,199,4.0,14.0,49,0.00,,,0.00,WUHU216DAVISVP2,2013-06-09 18:14:00,
2013-06-09 14:15:00,78.7,58.0,29.14,SW,224,3.0,11.0,49,0.00,,,0.00,WUHU216DAVISVP2,2013-06-09 18:15:00,
2013-06-09 14:16:00,78.8,58.1,29.14,South,185,6.0,11.0,49,0.00,,,0.00,WUHU216DAVISVP2,2013-06-09 18:16:00,
2013-06-09 14:18:00,78.9,58.1,29.14,SSE,162,6.0,11.0,49,0.00,,,0.00,WUHU216DAVISVP2,2013-06-09 18:18:00,
2013-06-09 14:19:00,79.0,57.6,29.14,SW,222,2.0,11.0,48,0.00,,,0.00,WUHU216DAVISVP2,2013-06-09 18:19:00,
2013-06-09 14:20:00,79.1,57.8,29.14,South,179,10.0,11.0,48,0.00,,,0.00,WUHU216DAVISVP2,2013-06-09 18:20:00,
2013-06-09 14:21:00,79.3,58.6,29.13,South,170,9.0,14.0,49,0.00,,,0.00,WUHU216DAVISVP2,2013-06-09 18:21:00,
2013-06-09 14:23:00,79.4,57.5,29.13,SSE,158,1.0,14.0,47,0.00,,,0.00,WUHU216DAVISVP2,2013-06-09 18:23:00,
2013-06-09 14:24:00,79.4,58.1,29.13,South,173,12.0,14.0,48,0.00,,,0.00,WUHU216DAVISVP2,2013-06-09 18:24:00,
2013-06-09 14:25:00,79.4,57.5,29.13,SW,229,5.0,14.0,47,0.00,,,0.00,WUHU216DAVISVP2,2013-06-09 18:25:00,
2013-06-09 14:27:00,79.5,57.6,29.13,SSW,195,2.0,14.0,47,0.00,,,0.00,WUHU216DAVISVP2,2013-06-09 18:27:00,
2013-06-09 14:29:00,79.4,57.5,29.13,SW,217,1.0,19.0,47,0.00,,,0.00,WUHU216DAVISVP2,2013-06-09 18:29:00,
2013-06-09 14:31:00,79.3,56.1,29.13,SSW,201,5.0,19.0,45,0.00,,,0.00,WUHU216DAVISVP2,2013-06-09 18:31:00,
2013-06-09 14:32:00,79.2,56.7,29.13,SSE,166,6.0,19.0,46,0.00,,,0.00,WUHU216DAVISVP2,2013-06-09 18:32:00,
2013-06-09 14:34:00,79.3,58.0,29.13,WSW,239,1.0,19.0,48,0.00,,,0.00,WUHU216DAVISVP2,2013-06-09 18:34:00,
2013-06-09 14:36:00,79.3,56.8,29.13,WSW,243,6.0,19.0,46,0.00,,,0.00,WUHU216DAVISVP2,2013-06-09 18:36:00,
2013-06-09 14:37:00,79.3,56.8,29.13,South,179,6.0,19.0,46,0.00,,,0.00,WUHU216DAVISVP2,2013-06-09 18:37:00,
2013-06-09 14:39:00,79.4,57.5,29.12,SW,216,4.0,19.0,47,0.00,,,0.00,WUHU216DAVISVP2,2013-06-09 18:39:00,
2013-06-09 14:41:00,79.5,56.9,29.12,SSE,165,5.0,19.0,46,0.00,,,0.00,WUHU216DAVISVP2,2013-06-09 18:41:00,
2013-06-09 14:42:00,79.6,56.4,29.13,South,175,6.0,19.0,45,0.00,,,0.00,WUHU216DAVISVP2,2013-06-09 18:42:00,
2013-06-09 14:44:00,79.8,57.2,29.13,SSE,168,10.0,19.0,46,0.00,,,0.00,WUHU216DAVISVP2,2013-06-09 18:44:00,
2013-06-09 14:45:00,79.8,57.8,29.13,SSW,194,5.0,19.0,47,0.00,,,0.00,WUHU216DAVISVP2,2013-06-09 18:45:00,
2013-06-09 14:46:00,79.9,57.3,29.13,SSW,196,10.0,19.0,46,0.00,,,0.00,WUHU216DAVISVP2,2013-06-09 18:46:00,
2013-06-09 14:48:00,79.9,57.9,29.13,SSW,195,5.0,19.0,47,0.00,,,0.00,WUHU216DAVISVP2,2013-06-09 18:48:00,
2013-06-09 14:49:00,80.0,57.4,29.12,South,183,9.0,19.0,46,0.00,,,0.00,WUHU216DAVISVP2,2013-06-09 18:49:00,
2013-06-09 14:50:00,80.1,57.5,29.12,SW,218,0.0,19.0,46,0.00,,,0.00,WUHU216DAVISVP2,2013-06-09 18:50:00,
2013-06-09 14:52:00,80.0,56.8,29.12,SSW,195,5.0,19.0,45,0.00,,,0.00,WUHU216DAVISVP2,2013-06-09 18:52:00,
2013-06-09 14:53:00,80.1,57.5,29.12,WSW,249,1.0,19.0,46,0.00,,,0.00,WUHU216DAVISVP2,2013-06-09 18:53:00,
2013-06-09 14:54:00,80.2,57.0,29.12,South,191,3.0,19.0,45,0.00,,,0.00,WUHU216DAVISVP2,2013-06-09 18:54:00,
2013-06-09 14:55:00,80.2,57.0,29.12,South,191,3.0,19.0,45,0.00,,,0.00,WUHU216DAVISVP2,2013-06-09 18:55:00,
2013-06-09 14:58:00,80.2,57.0,29.12,SSW,199,5.0,19.0,45,0.00,,,0.00,WUHU216DAVISVP2,2013-06-09 18:58:00,
2013-06-09 14:59:00,80.1,56.9,29.12,SSW,207,1.0,19.0,45,0.00,,,0.00,WUHU216DAVISVP2,2013-06-09 18:59:00,
2013-06-09 15:00:00,80.1,56.9,29.12,SSW,193,5.0,19.0,45,0.00,,,0.00,WUHU216DAVISVP2,2013-06-09 19:00:00,
2013-06-09 15:03:00,80.1,58.1,29.12,SW,231,15.0,15.0,47,0.00,,,0.00,WUHU216DAVISVP2,2013-06-09 19:03:00,
2013-06-09 15:05:00,80.0,56.8,29.12,SW,230,10.0,15.0,45,0.00,,,0.00,WUHU216DAVISVP2,2013-06-09 19:05:00,
2013-06-09 15:06:00,79.9,57.3,29.12,SSW,201,2.0,15.0,46,0.00,,,0.00,WUHU216DAVISVP2,2013-06-09 19:06:00,
2013-06-09 15:08:00,79.6,57.7,29.12,SW,223,4.0,16.0,47,0.00,,,0.00,WUHU216DAVISVP2,2013-06-09 19:08:00,
2013-06-09 15:10:00,79.4,57.5,29.12,WSW,243,8.0,16.0,47,0.00,,,0.00,WUHU216DAVISVP2,2013-06-09 19:10:00,
2013-06-09 15:11:00,79.3,57.4,29.12,SW,224,1.0,16.0,47,0.00,,,0.00,WUHU216DAVISVP2,2013-06-09 19:11:00,
2013-06-09 15:13:00,79.2,57.9,29.12,South,186,5.0,16.0,48,0.00,,,0.00,WUHU216DAVISVP2,2013-06-09 19:13:00,
2013-06-09 15:14:00,79.2,57.3,29.12,South,179,7.0,16.0,47,0.00,,,0.00,WUHU216DAVISVP2,2013-06-09 19:14:00,
2013-06-09 15:15:00,79.2,57.3,29.11,South,187,4.0,16.0,47,0.00,,,0.00,WUHU216DAVISVP2,2013-06-09 19:15:00,
2013-06-09 15:17:00,79.3,58.0,29.11,South,188,7.0,16.0,48,0.00,,,0.00,WUHU216DAVISVP2,2013-06-09 19:17:00,
2013-06-09 15:18:00,79.4,58.7,29.11,SSE,154,7.0,16.0,49,0.00,,,0.00,WUHU216DAVISVP2,2013-06-09 19:18:00,
2013-06-09 15:19:00,79.4,57.5,29.11,SSE,158,1.0,16.0,47,0.00,,,0.00,WUHU216DAVISVP2,2013-06-09 19:19:00,
2013-06-09 15:20:00,79.4,57.5,29.11,South,173,0.0,16.0,47,0.00,,,0.00,WUHU216DAVISVP2,2013-06-09 19:20:00,
2013-06-09 15:22:00,79.4,58.1,29.11,SSW,210,3.0,16.0,48,0.00,,,0.00,WUHU216DAVISVP2,2013-06-09 19:22:00,
2013-06-09 15:24:00,79.5,58.2,29.11,SSE,168,3.0,16.0,48,0.00,,,0.00,WUHU216DAVISVP2,2013-06-09 19:24:00,
2013-06-09 15:25:00,79.4,58.1,29.11,South,173,6.0,16.0,48,0.00,,,0.00,WUHU216DAVISVP2,2013-06-09 19:25:00,
2013-06-09 15:27:00,79.6,58.9,29.11,South,189,1.0,16.0,49,0.00,,,0.00,WUHU216DAVISVP2,2013-06-09 19:27:00,
2013-06-09 15:29:00,79.7,58.9,29.11,SSE,158,4.0,16.0,49,0.00,,,0.00,WUHU216DAVISVP2,2013-06-09 19:29:00,
2013-06-09 15:30:00,79.7,58.9,29.10,South,183,9.0,16.0,49,0.00,,,0.00,WUHU216DAVISVP2,2013-06-09 19:30:00,
2013-06-09 15:31:00,79.7,58.9,29.10,SSE,168,8.0,16.0,49,0.00,,,0.00,WUHU216DAVISVP2,2013-06-09 19:31:00,
2013-06-09 15:33:00,79.8,58.4,29.10,WSW,241,5.0,12.0,48,0.00,,,0.00,WUHU216DAVISVP2,2013-06-09 19:33:00,
2013-06-09 15:34:00,79.8,59.0,29.10,WSW,241,5.0,11.0,49,0.00,,,0.00,WUHU216DAVISVP2,2013-06-09 19:34:00,
2013-06-09 15:35:00,79.8,58.4,29.10,South,182,5.0,11.0,48,0.00,,,0.00,WUHU216DAVISVP2,2013-06-09 19:35:00,
2013-06-09 15:38:00,79.8,59.0,29.10,SSW,195,1.0,11.0,49,0.00,,,0.00,WUHU216DAVISVP2,2013-06-09 19:38:00,
2013-06-09 15:39:00,79.8,59.0,29.10,SSE,166,8.0,12.0,49,0.00,,,0.00,WUHU216DAVISVP2,2013-06-09 19:39:00,
2013-06-09 15:40:00,79.7,58.3,29.10,SW,218,2.0,16.0,48,0.00,,,0.00,WUHU216DAVISVP2,2013-06-09 19:40:00,
2013-06-09 15:41:00,79.7,58.3,29.10,SW,223,5.0,16.0,48,0.00,,,0.00,WUHU216DAVISVP2,2013-06-09 19:41:00,
2013-06-09 15:43:00,79.5,58.8,29.10,SW,214,1.0,16.0,49,0.00,,,0.00,WUHU216DAVISVP2,2013-06-09 19:43:00,
2013-06-09 15:44:00,79.5,58.1,29.10,SSW,195,9.0,16.0,48,0.00,,,0.00,WUHU216DAVISVP2,2013-06-09 19:44:00,
2013-06-09 15:45:00,79.5,58.7,29.10,South,173,9.0,16.0,49,0.00,,,0.00,WUHU216DAVISVP2,2013-06-09 19:45:00,
2013-06-09 15:46:00,79.5,58.1,29.10,South,176,7.0,16.0,48,0.00,,,0.00,WUHU216DAVISVP2,2013-06-09 19:46:00,
2013-06-09 15:48:00,79.6,57.7,29.10,SE,127,5.0,19.0,47,0.00,,,0.00,WUHU216DAVISVP2,2013-06-09 19:48:00,
2013-06-09 15:49:00,79.7,57.7,29.10,South,183,2.0,19.0,47,0.00,,,0.00,WUHU216DAVISVP2,2013-06-09 19:49:00,
2013-06-09 15:50:00,79.7,57.7,29.10,SSE,150,1.0,19.0,47,0.00,,,0.00,WUHU216DAVISVP2,2013-06-09 19:50:00,
2013-06-09 15:51:00,79.8,59.5,29.10,SW,220,5.0,19.0,50,0.00,,,0.00,WUHU216DAVISVP2,2013-06-09 19:51:00,
2013-06-09 15:53:00,80.0,58.0,29.10,South,187,4.0,19.0,47,0.00,,,0.00,WUHU216DAVISVP2,2013-06-09 19:53:00,
2013-06-09 15:54:00,80.0,58.0,29.10,SSE,147,13.0,19.0,47,0.00,,,0.00,WUHU216DAVISVP2,2013-06-09 19:54:00,
2013-06-09 15:55:00,79.9,57.9,29.10,SSE,166,5.0,19.0,47,0.00,,,0.00,WUHU216DAVISVP2,2013-06-09 19:55:00,
2013-06-09 15:56:00,79.8,57.8,29.10,South,175,6.0,19.0,47,0.00,,,0.00,WUHU216DAVISVP2,2013-06-09 19:56:00,
2013-06-09 15:57:00,79.8,57.8,29.10,South,175,6.0,19.0,47,0.00,,,0.00,WUHU216DAVISVP2,2013-06-09 19:57:00,
2013-06-09 15:59:00,79.5,57.5,29.10,SW,217,5.0,19.0,47,0.00,,,0.00,WUHU216DAVISVP2,2013-06-09 19:59:00,
2013-06-09 16:00:00,79.5,58.1,29.10,SW,219,0.0,19.0,48,0.00,,,0.00,WUHU216DAVISVP2,2013-06-09 20:00:00,
2013-06-09 16:02:00,79.4,58.6,29.10,SW,214,0.0,19.0,49,0.00,,,0.00,WUHU216DAVISVP2,2013-06-09 20:02:00,
2013-06-09 16:04:00,79.4,58.1,29.10,South,173,4.0,19.0,48,0.00,,,0.00,WUHU216DAVISVP2,2013-06-09 20:04:00,
2013-06-09 16:05:00,79.4,58.1,29.10,SSW,212,4.0,19.0,48,0.00,,,0.00,WUHU216DAVISVP2,2013-06-09 20:05:00,
2013-06-09 16:07:00,79.4,58.7,29.09,South,173,3.0,13.0,49,0.00,,,0.00,WUHU216DAVISVP2,2013-06-09 20:07:00,
2013-06-09 16:08:00,79.5,58.8,29.10,SSE,152,5.0,13.0,49,0.00,,,0.00,WUHU216DAVISVP2,2013-06-09 20:08:00,
2013-06-09 16:09:00,79.4,58.7,29.10,SE,139,5.0,13.0,49,0.00,,,0.00,WUHU216DAVISVP2,2013-06-09 20:09:00,
2013-06-09 16:10:00,79.4,58.6,29.10,South,172,4.0,13.0,49,0.00,,,0.00,WUHU216DAVISVP2,2013-06-09 20:10:00,
2013-06-09 16:11:00,79.4,58.6,29.10,SSE,156,6.0,13.0,49,0.00,,,0.00,WUHU216DAVISVP2,2013-06-09 20:11:00,
2013-06-09 16:12:00,79.3,58.5,29.10,SW,220,2.0,13.0,49,0.00,,,0.00,WUHU216DAVISVP2,2013-06-09 20:12:00,
2013-06-09 16:13:00,79.4,59.1,29.10,South,191,6.0,13.0,50,0.00,,,0.00,WUHU216DAVISVP2,2013-06-09 20:13:00,
2013-06-09 16:14:00,79.3,59.0,29.10,SW,214,4.0,13.0,50,0.00,,,0.00,WUHU216DAVISVP2,2013-06-09 20:14:00,
2013-06-09 16:15:00,79.3,59.0,29.10,SSW,198,1.0,13.0,50,0.00,,,0.00,WUHU216DAVISVP2,2013-06-09 20:15:00,
2013-06-09 16:16:00,79.3,59.0,29.10,SSW,198,2.0,13.0,50,0.00,,,0.00,WUHU216DAVISVP2,2013-06-09 20:16:00,
2013-06-09 16:18:00,79.3,59.6,29.09,SSW,193,6.0,13.0,51,0.00,,,0.00,WUHU216DAVISVP2,2013-06-09 20:18:00,
2013-06-09 16:19:00,79.4,59.2,29.09,SSW,193,5.0,13.0,50,0.00,,,0.00,WUHU216DAVISVP2,2013-06-09 20:19:00,
2013-06-09 16:20:00,79.4,59.2,29.09,SSW,205,1.0,13.0,50,0.00,,,0.00,WUHU216DAVISVP2,2013-06-09 20:20:00,
2013-06-09 16:21:00,79.4,59.2,29.09,SSE,150,3.0,13.0,50,0.00,,,0.00,WUHU216DAVISVP2,2013-06-09 20:21:00,
2013-06-09 16:23:00,79.4,58.7,29.09,South,176,6.0,13.0,49,0.00,,,0.00,WUHU216DAVISVP2,2013-06-09 20:23:00,
2013-06-09 16:24:00,79.4,59.1,29.09,South,170,10.0,13.0,50,0.00,,,0.00,WUHU216DAVISVP2,2013-06-09 20:24:00,
2013-06-09 16:25:00,79.4,59.1,29.09,SW,229,5.0,13.0,50,0.00,,,0.00,WUHU216DAVISVP2,2013-06-09 20:25:00,
2013-06-09 16:26:00,79.5,58.1,29.09,SSE,167,5.0,13.0,48,0.00,,,0.00,WUHU216DAVISVP2,2013-06-09 20:26:00,
2013-06-09 16:28:00,79.5,58.1,29.09,South,191,4.0,13.0,48,0.00,,,0.00,WUHU216DAVISVP2,2013-06-09 20:28:00,
2013-06-09 16:30:00,79.5,58.1,29.09,South,177,7.0,13.0,48,0.00,,,0.00,WUHU216DAVISVP2,2013-06-09 20:30:00,
2013-06-09 16:31:00,79.5,58.7,29.09,SSE,153,1.0,13.0,49,0.00,,,0.00,WUHU216DAVISVP2,2013-06-09 20:31:00,
2013-06-09 16:33:00,79.5,58.7,29.09,SSE,162,6.0,13.0,49,0.00,,,0.00,WUHU216DAVISVP2,2013-06-09 20:33:00,
2013-06-09 16:35:00,79.6,58.2,29.09,South,172,5.0,15.0,48,0.00,,,0.00,WUHU216DAVISVP2,2013-06-09 20:35:00,
2013-06-09 16:37:00,79.6,58.3,29.09,SSE,164,5.0,15.0,48,0.00,,,0.00,WUHU216DAVISVP2,2013-06-09 20:37:00,
2013-06-09 16:38:00,79.5,58.2,29.09,ESE,116,4.0,15.0,48,0.00,,,0.00,WUHU216DAVISVP2,2013-06-09 20:38:00,
2013-06-09 16:40:00,79.4,58.1,29.08,South,189,0.0,15.0,48,0.00,,,0.00,WUHU216DAVISVP2,2013-06-09 20:40:00,
2013-06-09 16:42:00,79.4,58.1,29.08,South,182,5.0,15.0,48,0.00,,,0.00,WUHU216DAVISVP2,2013-06-09 20:42:00,
2013-06-09 16:43:00,79.4,58.7,29.08,SSE,149,7.0,15.0,49,0.00,,,0.00,WUHU216DAVISVP2,2013-06-09 20:43:00,
2013-06-09 16:44:00,79.4,58.7,29.08,SSE,152,4.0,15.0,49,0.00,,,0.00,WUHU216DAVISVP2,2013-06-09 20:44:00,
2013-06-09 16:45:00,79.4,59.2,29.08,ESE,115,5.0,15.0,50,0.00,,,0.00,WUHU216DAVISVP2,2013-06-09 20:45:00,
2013-06-09 16:46:00,79.4,58.7,29.08,South,189,5.0,15.0,49,0.00,,,0.00,WUHU216DAVISVP2,2013-06-09 20:46:00,
2013-06-09 16:48:00,79.4,58.6,29.08,SSW,202,2.0,15.0,49,0.00,,,0.00,WUHU216DAVISVP2,2013-06-09 20:48:00,
2013-06-09 16:49:00,79.4,59.1,29.08,SE,139,5.0,15.0,50,0.00,,,0.00,WUHU216DAVISVP2,2013-06-09 20:49:00,
2013-06-09 16:50:00,79.4,58.6,29.08,South,170,4.0,15.0,49,0.00,,,0.00,WUHU216DAVISVP2,2013-06-09 20:50:00,
2013-06-09 16:51:00,79.4,58.6,29.08,South,170,4.0,15.0,49,0.00,,,0.00,WUHU216DAVISVP2,2013-06-09 20:51:00,
2013-06-09 16:53:00,79.4,58.6,29.08,SSE,162,5.0,15.0,49,0.00,,,0.00,WUHU216DAVISVP2,2013-06-09 20:53:00,
2013-06-09 16:54:00,79.4,58.6,29.08,SSW,199,4.0,14.0,49,0.00,,,0.00,WUHU216DAVISVP2,2013-06-09 20:54:00,
2013-06-09 16:55:00,79.4,58.7,29.08,South,180,4.0,12.0,49,0.00,,,0.00,WUHU216DAVISVP2,2013-06-09 20:55:00,
2013-06-09 16:56:00,79.4,58.7,29.08,South,184,7.0,12.0,49,0.00,,,0.00,WUHU216DAVISVP2,2013-06-09 20:56:00,
2013-06-09 16:58:00,79.4,58.7,29.08,South,173,5.0,11.0,49,0.00,,,0.00,WUHU216DAVISVP2,2013-06-09 20:58:00,
2013-06-09 16:59:00,79.4,59.2,29.08,SSE,162,5.0,11.0,50,0.00,,,0.00,WUHU216DAVISVP2,2013-06-09 20:59:00,
2013-06-09 17:01:00,79.4,59.2,29.08,SSE,156,1.0,11.0,50,0.00,,,0.00,WUHU216DAVISVP2,2013-06-09 21:01:00,
2013-06-09 17:02:00,79.4,59.2,29.08,SSE,152,7.0,11.0,50,0.00,,,0.00,WUHU216DAVISVP2,2013-06-09 21:02:00,
2013-06-09 17:03:00,79.3,59.2,29.08,SSE,148,4.0,11.0,50,0.00,,,0.00,WUHU216DAVISVP2,2013-06-09 21:03:00,
2013-06-09 17:04:00,79.4,59.2,29.08,SSE,150,4.0,11.0,50,0.00,,,0.00,WUHU216DAVISVP2,2013-06-09 21:04:00,
2013-06-09 17:06:00,79.4,59.2,29.08,SW,222,3.0,11.0,50,0.00,,,0.00,WUHU216DAVISVP2,2013-06-09 21:06:00,
2013-06-09 17:07:00,79.4,59.2,29.08,SE,145,9.0,11.0,50,0.00,,,0.00,WUHU216DAVISVP2,2013-06-09 21:07:00,
2013-06-09 17:08:00,79.4,59.1,29.08,South,174,9.0,19.0,50,0.00,,,0.00,WUHU216DAVISVP2,2013-06-09 21:08:00,
2013-06-09 17:09:00,79.4,59.1,29.08,SSE,158,13.0,19.0,50,0.00,,,0.00,WUHU216DAVISVP2,2013-06-09 21:09:00,
2013-06-09 17:11:00,79.3,59.0,29.09,SW,221,7.0,19.0,50,0.00,,,0.00,WUHU216DAVISVP2,2013-06-09 21:11:00,
2013-06-09 17:12:00,79.3,59.0,29.09,South,172,2.0,19.0,50,0.00,,,0.00,WUHU216DAVISVP2,2013-06-09 21:12:00,
2013-06-09 17:13:00,79.3,59.0,29.08,SW,236,4.0,19.0,50,0.00,,,0.00,WUHU216DAVISVP2,2013-06-09 21:13:00,
2013-06-09 17:14:00,79.3,59.0,29.08,SW,235,3.0,19.0,50,0.00,,,0.00,WUHU216DAVISVP2,2013-06-09 21:14:00,
2013-06-09 17:16:00,79.3,59.7,29.08,South,170,5.0,19.0,51,0.00,,,0.00,WUHU216DAVISVP2,2013-06-09 21:16:00,
2013-06-09 17:17:00,79.2,59.6,29.08,South,181,2.0,19.0,51,0.00,,,0.00,WUHU216DAVISVP2,2013-06-09 21:17:00,
2013-06-09 17:18:00,79.2,59.1,29.08,South,191,5.0,19.0,50,0.00,,,0.00,WUHU216DAVISVP2,2013-06-09 21:18:00,
2013-06-09 17:19:00,79.2,59.1,29.08,South,178,11.0,19.0,50,0.00,,,0.00,WUHU216DAVISVP2,2013-06-09 21:19:00,
2013-06-09 17:21:00,79.3,58.6,29.08,South,174,8.0,19.0,49,0.00,,,0.00,WUHU216DAVISVP2,2013-06-09 21:21:00,
2013-06-09 17:23:00,79.3,59.2,29.08,SSE,168,5.0,19.0,50,0.00,,,0.00,WUHU216DAVISVP2,2013-06-09 21:23:00,
2013-06-09 17:24:00,79.3,59.2,29.08,South,187,2.0,19.0,50,0.00,,,0.00,WUHU216DAVISVP2,2013-06-09 21:24:00,
2013-06-09 17:26:00,79.2,59.1,29.08,South,171,1.0,19.0,50,0.00,,,0.00,WUHU216DAVISVP2,2013-06-09 21:26:00,
2013-06-09 17:28:00,79.2,59.6,29.08,South,171,2.0,15.0,51,0.00,,,0.00,WUHU216DAVISVP2,2013-06-09 21:28:00,
2013-06-09 17:29:00,79.2,59.6,29.08,South,171,1.0,15.0,51,0.00,,,0.00,WUHU216DAVISVP2,2013-06-09 21:29:00,
2013-06-09 17:30:00,79.2,59.6,29.08,South,171,4.0,15.0,51,0.00,,,0.00,WUHU216DAVISVP2,2013-06-09 21:30:00,
2013-06-09 17:32:00,79.2,59.6,29.08,South,174,3.0,11.0,51,0.00,,,0.00,WUHU216DAVISVP2,2013-06-09 21:32:00,
2013-06-09 17:33:00,79.3,59.7,29.08,South,174,1.0,11.0,51,0.00,,,0.00,WUHU216DAVISVP2,2013-06-09 21:33:00,
2013-06-09 17:34:00,79.3,59.7,29.08,South,174,4.0,11.0,51,0.00,,,0.00,WUHU216DAVISVP2,2013-06-09 21:34:00,
2013-06-09 17:35:00,79.3,60.3,29.08,South,179,5.0,11.0,52,0.00,,,0.00,WUHU216DAVISVP2,2013-06-09 21:35:00,
2013-06-09 17:37:00,79.3,59.7,29.08,South,179,4.0,11.0,51,0.00,,,0.00,WUHU216DAVISVP2,2013-06-09 21:37:00,
2013-06-09 17:38:00,79.3,59.7,29.07,South,179,3.0,10.0,51,0.00,,,0.00,WUHU216DAVISVP2,2013-06-09 21:38:00,
2013-06-09 17:39:00,79.2,59.6,29.07,South,179,1.0,10.0,51,0.00,,,0.00,WUHU216DAVISVP2,2013-06-09 21:39:00,
2013-06-09 17:40:00,79.2,59.1,29.07,South,180,4.0,8.0,50,0.00,,,0.00,WUHU216DAVISVP2,2013-06-09 21:40:00,
2013-06-09 17:43:00,79.2,59.1,29.07,South,179,1.0,10.0,50,0.00,,,0.00,WUHU216DAVISVP2,2013-06-09 21:43:00,
2013-06-09 17:44:00,79.2,59.6,29.08,SSW,207,2.0,10.0,51,0.00,,,0.00,WUHU216DAVISVP2,2013-06-09 21:44:00,
2013-06-09 17:45:00,79.2,59.1,29.08,South,191,3.0,10.0,50,0.00,,,0.00,WUHU216DAVISVP2,2013-06-09 21:45:00,
2013-06-09 17:47:00,79.2,59.1,29.08,South,175,3.0,10.0,50,0.00,,,0.00,WUHU216DAVISVP2,2013-06-09 21:47:00,
2013-06-09 17:48:00,79.1,59.5,29.08,South,170,2.0,10.0,51,0.00,,,0.00,WUHU216DAVISVP2,2013-06-09 21:48:00,
2013-06-09 17:49:00,79.1,59.0,29.08,South,187,5.0,10.0,50,0.00,,,0.00,WUHU216DAVISVP2,2013-06-09 21:49:00,
2013-06-09 17:51:00,79.1,59.5,29.08,South,174,2.0,10.0,51,0.00,,,0.00,WUHU216DAVISVP2,2013-06-09 21:51:00,
2013-06-09 17:52:00,79.0,59.5,29.08,South,187,1.0,10.0,51,0.00,,,0.00,WUHU216DAVISVP2,2013-06-09 21:52:00,
2013-06-09 17:53:00,79.0,59.5,29.08,South,176,6.0,10.0,51,0.00,,,0.00,WUHU216DAVISVP2,2013-06-09 21:53:00,
2013-06-09 17:54:00,79.0,58.9,29.08,SW,223,5.0,10.0,50,0.00,,,0.00,WUHU216DAVISVP2,2013-06-09 21:54:00,
2013-06-09 17:56:00,78.9,58.8,29.08,SSE,168,6.0,11.0,50,0.00,,,0.00,WUHU216DAVISVP2,2013-06-09 21:56:00,
2013-06-09 17:57:00,78.9,58.8,29.08,SW,216,1.0,11.0,50,0.00,,,0.00,WUHU216DAVISVP2,2013-06-09 21:57:00,
2013-06-09 17:58:00,78.9,58.8,29.08,SSE,160,1.0,11.0,50,0.00,,,0.00,WUHU216DAVISVP2,2013-06-09 21:58:00,
2013-06-09 17:59:00,78.9,58.8,29.08,South,186,4.0,11.0,50,0.00,,,0.00,WUHU216DAVISVP2,2013-06-09 21:59:00,
2013-06-09 18:00:00,78.9,58.8,29.07,SSE,147,6.0,11.0,50,0.00,,,0.00,WUHU216DAVISVP2,2013-06-09 22:00:00,
2013-06-09 18:01:00,78.9,58.8,29.08,SSW,205,2.0,11.0,50,0.00,,,0.00,WUHU216DAVISVP2,2013-06-09 22:01:00,
2013-06-09 18:02:00,78.9,59.4,29.07,SE,143,1.0,11.0,51,0.00,,,0.00,WUHU216DAVISVP2,2013-06-09 22:02:00,
2013-06-09 18:04:00,78.8,58.7,29.08,SSE,153,5.0,11.0,50,0.00,,,0.00,WUHU216DAVISVP2,2013-06-09 22:04:00,
2013-06-09 18:05:00,78.8,59.3,29.07,SSW,193,1.0,11.0,51,0.00,,,0.00,WUHU216DAVISVP2,2013-06-09 22:05:00,
2013-06-09 18:07:00,78.8,59.3,29.08,SSW,193,1.0,11.0,51,0.00,,,0.00,WUHU216DAVISVP2,2013-06-09 22:07:00,
2013-06-09 18:09:00,78.8,59.3,29.08,SSW,193,1.0,11.0,51,0.00,,,0.00,WUHU216DAVISVP2,2013-06-09 22:09:00,
2013-06-09 18:11:00,78.8,59.1,29.08,South,172,1.0,11.0,51,0.00,,,0.00,WUHU216DAVISVP2,2013-06-09 22:11:00,
2013-06-09 18:12:00,78.8,59.1,29.08,South,176,1.0,11.0,51,0.00,,,0.00,WUHU216DAVISVP2,2013-06-09 22:12:00,
2013-06-09 18:14:00,78.8,59.7,29.08,South,176,4.0,10.0,52,0.00,,,0.00,WUHU216DAVISVP2,2013-06-09 22:14:00,
2013-06-09 18:15:00,78.8,59.7,29.08,South,175,4.0,10.0,52,0.00,,,0.00,WUHU216DAVISVP2,2013-06-09 22:15:00,
2013-06-09 18:17:00,78.7,59.2,29.07,SSE,166,4.0,10.0,51,0.00,,,0.00,WUHU216DAVISVP2,2013-06-09 22:17:00,
2013-06-09 18:18:00,78.8,59.3,29.07,South,191,1.0,10.0,51,0.00,,,0.00,WUHU216DAVISVP2,2013-06-09 22:18:00,
2013-06-09 18:20:00,78.7,59.2,29.07,South,176,0.0,9.0,51,0.00,,,0.00,WUHU216DAVISVP2,2013-06-09 22:20:00,
2013-06-09 18:22:00,78.7,59.2,29.07,South,169,6.0,9.0,51,0.00,,,0.00,WUHU216DAVISVP2,2013-06-09 22:22:00,
2013-06-09 18:23:00,78.7,59.2,29.07,South,169,5.0,9.0,51,0.00,,,0.00,WUHU216DAVISVP2,2013-06-09 22:23:00,
2013-06-09 18:25:00,78.7,59.2,29.07,SSE,159,4.0,9.0,51,0.00,,,0.00,WUHU216DAVISVP2,2013-06-09 22:25:00,
2013-06-09 18:27:00,78.6,59.1,29.07,South,179,5.0,10.0,51,0.00,,,0.00,WUHU216DAVISVP2,2013-06-09 22:27:00,
2013-06-09 18:28:00,78.6,59.0,29.07,South,184,5.0,10.0,51,0.00,,,0.00,WUHU216DAVISVP2,2013-06-09 22:28:00,
2013-06-09 18:30:00,78.6,58.4,29.07,SW,215,6.0,10.0,50,0.00,,,0.00,WUHU216DAVISVP2,2013-06-09 22:30:00,
2013-06-09 18:31:00,78.6,59.0,29.07,South,183,4.0,10.0,51,0.00,,,0.00,WUHU216DAVISVP2,2013-06-09 22:31:00,
2013-06-09 18:32:00,78.5,58.9,29.07,SSW,208,4.0,10.0,51,0.00,,,0.00,WUHU216DAVISVP2,2013-06-09 22:32:00,
2013-06-09 18:34:00,78.5,58.9,29.07,South,186,1.0,10.0,51,0.00,,,0.00,WUHU216DAVISVP2,2013-06-09 22:34:00,
2013-06-09 18:35:00,78.5,58.9,29.07,South,177,2.0,10.0,51,0.00,,,0.00,WUHU216DAVISVP2,2013-06-09 22:35:00,
2013-06-09 18:37:00,78.4,58.9,29.07,SW,225,4.0,10.0,51,0.00,,,0.00,WUHU216DAVISVP2,2013-06-09 22:37:00,
2013-06-09 18:38:00,78.4,58.9,29.07,South,181,2.0,10.0,51,0.00,,,0.00,WUHU216DAVISVP2,2013-06-09 22:38:00,
2013-06-09 18:39:00,78.4,58.9,29.07,South,191,3.0,10.0,51,0.00,,,0.00,WUHU216DAVISVP2,2013-06-09 22:39:00,
2013-06-09 18:40:00,78.4,59.5,29.07,SSE,164,1.0,10.0,52,0.00,,,0.00,WUHU216DAVISVP2,2013-06-09 22:40:00,
2013-06-09 18:42:00,78.3,58.8,29.07,SSW,201,5.0,10.0,51,0.00,,,0.00,WUHU216DAVISVP2,2013-06-09 22:42:00,
2013-06-09 18:43:00,78.3,58.8,29.07,South,183,6.0,10.0,51,0.00,,,0.00,WUHU216DAVISVP2,2013-06-09 22:43:00,
2013-06-09 18:44:00,78.2,59.3,29.07,SW,224,5.0,10.0,52,0.00,,,0.00,WUHU216DAVISVP2,2013-06-09 22:44:00,
2013-06-09 18:46:00,78.1,59.2,29.07,SSW,197,1.0,10.0,52,0.00,,,0.00,WUHU216DAVISVP2,2013-06-09 22:46:00,
2013-06-09 18:48:00,77.9,59.5,29.07,SSW,206,2.0,12.0,53,0.00,,,0.00,WUHU216DAVISVP2,2013-06-09 22:48:00,
2013-06-09 18:49:00,77.8,59.4,29.07,SSW,208,6.0,12.0,53,0.00,,,0.00,WUHU216DAVISVP2,2013-06-09 22:49:00,
2013-06-09 18:51:00,77.5,59.7,29.08,South,181,11.0,14.0,54,0.00,,,0.00,WUHU216DAVISVP2,2013-06-09 22:51:00,
2013-06-09 18:53:00,77.3,60.0,29.08,South,189,10.0,14.0,55,0.00,,,0.00,WUHU216DAVISVP2,2013-06-09 22:53:00,
2013-06-09 18:54:00,77.0,60.1,29.08,South,177,8.0,19.0,56,0.00,,,0.00,WUHU216DAVISVP2,2013-06-09 22:54:00,
2013-06-09 18:56:00,76.5,60.6,29.08,SSW,208,4.0,19.0,58,0.00,,,0.00,WUHU216DAVISVP2,2013-06-09 22:56:00,
2013-06-09 18:58:00,76.2,61.0,29.08,SSW,208,4.0,19.0,59,0.00,,,0.00,WUHU216DAVISVP2,2013-06-09 22:58:00,
2013-06-09 18:59:00,76.1,60.9,29.07,South,174,6.0,19.0,59,0.00,,,0.00,WUHU216DAVISVP2,2013-06-09 22:59:00,
2013-06-09 19:01:00,75.9,61.2,29.07,SW,219,2.0,19.0,60,0.00,,,0.00,WUHU216DAVISVP2,2013-06-09 23:01:00,
2013-06-09 19:03:00,75.7,61.0,29.07,South,190,7.0,19.0,60,0.00,,,0.00,WUHU216DAVISVP2,2013-06-09 23:03:00,
2013-06-09 19:04:00,75.6,61.4,29.07,South,172,7.0,19.0,61,0.00,,,0.00,WUHU216DAVISVP2,2013-06-09 23:04:00,
2013-06-09 19:06:00,75.4,61.7,29.07,WSW,249,7.0,19.0,62,0.00,,,0.00,WUHU216DAVISVP2,2013-06-09 23:06:00,
2013-06-09 19:08:00,75.1,61.9,29.07,South,176,5.0,19.0,63,0.00,,,0.00,WUHU216DAVISVP2,2013-06-09 23:08:00,
2013-06-09 19:09:00,75.1,61.9,29.07,SSW,202,2.0,19.0,63,0.00,,,0.00,WUHU216DAVISVP2,2013-06-09 23:09:00,
2013-06-09 19:12:00,74.7,61.9,29.08,South,183,4.0,19.0,64,0.00,,,0.00,WUHU216DAVISVP2,2013-06-09 23:12:00,
2013-06-09 19:14:00,74.4,62.1,29.08,South,191,2.0,14.0,65,0.00,,,0.00,WUHU216DAVISVP2,2013-06-09 23:14:00,
2013-06-09 19:17:00,74.0,62.1,29.08,SSW,199,3.0,14.0,66,0.00,,,0.00,WUHU216DAVISVP2,2013-06-09 23:17:00,
2013-06-09 19:19:00,73.7,62.3,29.07,SSE,166,6.0,14.0,67,0.00,,,0.00,WUHU216DAVISVP2,2013-06-09 23:19:00,
2013-06-09 19:20:00,73.6,62.2,29.07,South,181,7.0,14.0,67,0.00,,,0.00,WUHU216DAVISVP2,2013-06-09 23:20:00,
2013-06-09 19:22:00,73.3,62.7,29.07,SSE,166,1.0,12.0,69,0.00,,,0.00,WUHU216DAVISVP2,2013-06-09 23:22:00,
2013-06-09 19:24:00,73.0,62.8,29.07,South,187,0.0,11.0,70,0.00,,,0.00,WUHU216DAVISVP2,2013-06-09 23:24:00,
2013-06-09 19:25:00,72.9,62.7,29.07,South,186,4.0,11.0,70,0.00,,,0.00,WUHU216DAVISVP2,2013-06-09 23:25:00,
2013-06-09 19:27:00,72.7,62.9,29.07,South,186,1.0,11.0,71,0.00,,,0.00,WUHU216DAVISVP2,2013-06-09 23:27:00,
2013-06-09 19:29:00,72.4,62.6,29.07,South,186,0.0,10.0,71,0.00,,,0.00,WUHU216DAVISVP2,2013-06-09 23:29:00,
2013-06-09 19:30:00,72.3,62.5,29.07,South,186,2.0,10.0,71,0.00,,,0.00,WUHU216DAVISVP2,2013-06-09 23:30:00,
2013-06-09 19:32:00,72.1,62.2,29.07,South,186,2.0,10.0,71,0.00,,,0.00,WUHU216DAVISVP2,2013-06-09 23:32:00,
2013-06-09 19:34:00,72.1,62.6,29.07,South,186,1.0,7.0,72,0.00,,,0.00,WUHU216DAVISVP2,2013-06-09 23:34:00,
2013-06-09 19:35:00,72.1,62.6,29.07,South,186,6.0,7.0,72,0.00,,,0.00,WUHU216DAVISVP2,2013-06-09 23:35:00,
2013-06-09 19:37:00,72.0,62.5,29.07,South,186,2.0,7.0,72,0.00,,,0.00,WUHU216DAVISVP2,2013-06-09 23:37:00,
2013-06-09 19:39:00,71.9,62.6,29.07,South,186,2.0,7.0,72,0.00,,,0.00,WUHU216DAVISVP2,2013-06-09 23:39:00,
2013-06-09 19:40:00,71.9,62.6,29.07,South,186,2.0,7.0,72,0.00,,,0.00,WUHU216DAVISVP2,2013-06-09 23:40:00,
2013-06-09 19:42:00,71.9,62.6,29.07,South,186,0.0,7.0,72,0.00,,,0.00,WUHU216DAVISVP2,2013-06-09 23:42:00,
2013-06-09 19:43:00,71.9,62.9,29.07,South,186,2.0,7.0,73,0.00,,,0.00,WUHU216DAVISVP2,2013-06-09 23:43:00,
2013-06-09 19:45:00,71.9,62.6,29.07,South,186,2.0,7.0,72,0.00,,,0.00,WUHU216DAVISVP2,2013-06-09 23:45:00,
2013-06-09 19:47:00,71.9,62.6,29.07,South,186,1.0,7.0,72,0.00,,,0.00,WUHU216DAVISVP2,2013-06-09 23:47:00,
2013-06-09 19:48:00,71.9,62.6,29.06,South,186,1.0,7.0,72,0.00,,,0.00,WUHU216DAVISVP2,2013-06-09 23:48:00,
2013-06-09 19:50:00,72.0,62.5,29.06,South,186,2.0,7.0,72,0.00,,,0.00,WUHU216DAVISVP2,2013-06-09 23:50:00,
2013-06-09 19:51:00,72.0,62.5,29.07,South,186,1.0,7.0,72,0.00,,,0.00,WUHU216DAVISVP2,2013-06-09 23:51:00,
2013-06-09 19:52:00,72.0,62.5,29.07,South,186,1.0,7.0,72,0.00,,,0.00,WUHU216DAVISVP2,2013-06-09 23:52:00,
2013-06-09 19:53:00,72.0,62.5,29.07,South,186,4.0,7.0,72,0.00,,,0.00,WUHU216DAVISVP2,2013-06-09 23:53:00,
2013-06-09 19:56:00,72.1,62.6,29.07,South,186,2.0,5.0,72,0.00,,,0.00,WUHU216DAVISVP2,2013-06-09 23:56:00,
2013-06-09 19:57:00,72.0,63.0,29.07,SSE,158,0.0,7.0,73,0.00,,,0.00,WUHU216DAVISVP2,2013-06-09 23:57:00,
2013-06-09 19:59:00,72.0,62.7,29.06,SE,139,4.0,7.0,72,0.00,,,0.00,WUHU216DAVISVP2,2013-06-09 23:59:00,
2013-06-09 20:01:00,72.0,62.7,29.06,SSE,159,2.0,7.0,72,0.00,,,0.00,WUHU216DAVISVP2,2013-06-10 00:01:00,
2013-06-09 20:03:00,72.0,63.0,29.06,SSW,206,2.0,7.0,73,0.00,,,0.00,WUHU216DAVISVP2,2013-06-10 00:03:00,
2013-06-09 20:04:00,72.0,62.7,29.06,SW,226,1.0,7.0,72,0.00,,,0.00,WUHU216DAVISVP2,2013-06-10 00:04:00,
2013-06-09 20:06:00,72.1,63.1,29.07,South,170,4.0,7.0,73,0.00,,,0.00,WUHU216DAVISVP2,2013-06-10 00:06:00,
2013-06-09 20:07:00,72.1,62.7,29.07,South,185,1.0,8.0,72,0.00,,,0.00,WUHU216DAVISVP2,2013-06-10 00:07:00,
2013-06-09 20:08:00,72.2,63.2,29.07,South,171,4.0,8.0,73,0.00,,,0.00,WUHU216DAVISVP2,2013-06-10 00:08:00,
2013-06-09 20:09:00,72.3,62.9,29.07,South,177,8.0,11.0,72,0.00,,,0.00,WUHU216DAVISVP2,2013-06-10 00:09:00,
2013-06-09 20:11:00,72.4,63.4,29.06,South,191,6.0,11.0,73,0.00,,,0.00,WUHU216DAVISVP2,2013-06-10 00:11:00,
2013-06-09 20:12:00,72.4,63.4,29.06,SW,222,5.0,13.0,73,0.00,,,0.00,WUHU216DAVISVP2,2013-06-10 00:12:00,
2013-06-09 20:13:00,72.5,63.1,29.07,South,177,8.0,13.0,72,0.00,,,0.00,WUHU216DAVISVP2,2013-06-10 00:13:00,
2013-06-09 20:14:00,72.6,63.2,29.07,SSE,164,6.0,13.0,72,0.00,,,0.00,WUHU216DAVISVP2,2013-06-10 00:14:00,
2013-06-09 20:16:00,72.7,62.9,29.07,South,187,6.0,13.0,71,0.00,,,0.00,WUHU216DAVISVP2,2013-06-10 00:16:00,
2013-06-09 20:17:00,72.8,63.0,29.07,SSW,200,2.0,13.0,71,0.00,,,0.00,WUHU216DAVISVP2,2013-06-10 00:17:00,
2013-06-09 20:18:00,72.8,63.0,29.07,South,191,5.0,13.0,71,0.00,,,0.00,WUHU216DAVISVP2,2013-06-10 00:18:00,
2013-06-09 20:19:00,72.9,63.1,29.07,WSW,249,15.0,15.0,71,0.00,,,0.00,WUHU216DAVISVP2,2013-06-10 00:19:00,
2013-06-09 20:22:00,73.1,62.9,29.07,SSW,195,9.0,18.0,70,0.00,,,0.00,WUHU216DAVISVP2,2013-06-10 00:22:00,
2013-06-09 20:23:00,73.1,62.9,29.07,South,181,8.0,18.0,70,0.00,,,0.00,WUHU216DAVISVP2,2013-06-10 00:23:00,
2013-06-09 20:25:00,73.1,62.7,29.07,SSW,204,3.0,18.0,70,0.00,,,0.00,WUHU216DAVISVP2,2013-06-10 00:25:00,
2013-06-09 20:27:00,73.0,62.6,29.07,SSW,208,2.0,18.0,70,0.00,,,0.00,WUHU216DAVISVP2,2013-06-10 00:27:00,
2013-06-09 20:28:00,73.0,62.6,29.07,SSW,204,0.0,18.0,70,0.00,,,0.00,WUHU216DAVISVP2,2013-06-10 00:28:00,
2013-06-09 20:30:00,72.9,62.5,29.07,SSW,208,2.0,18.0,70,0.00,,,0.00,WUHU216DAVISVP2,2013-06-10 00:30:00,
2013-06-09 20:32:00,72.8,62.6,29.07,SW,214,1.0,18.0,70,0.00,,,0.00,WUHU216DAVISVP2,2013-06-10 00:32:00,
2013-06-09 20:33:00,72.8,62.6,29.08,South,183,1.0,18.0,70,0.00,,,0.00,WUHU216DAVISVP2,2013-06-10 00:33:00,
2013-06-09 20:35:00,72.7,62.5,29.08,SW,232,3.0,18.0,70,0.00,,,0.00,WUHU216DAVISVP2,2013-06-10 00:35:00,
2013-06-09 20:37:00,72.7,62.5,29.07,SSW,201,1.0,18.0,70,0.00,,,0.00,WUHU216DAVISVP2,2013-06-10 00:37:00,
2013-06-09 20:38:00,72.7,62.5,29.07,SW,227,2.0,18.0,70,0.00,,,0.00,WUHU216DAVISVP2,2013-06-10 00:38:00,
2013-06-09 20:40:00,72.6,62.4,29.07,SW,218,1.0,12.0,70,0.00,,,0.00,WUHU216DAVISVP2,2013-06-10 00:40:00,
2013-06-09 20:42:00,72.6,62.8,29.07,South,187,1.0,11.0,71,0.00,,,0.00,WUHU216DAVISVP2,2013-06-10 00:42:00,
2013-06-09 20:43:00,72.6,62.8,29.07,South,172,9.0,11.0,71,0.00,,,0.00,WUHU216DAVISVP2,2013-06-10 00:43:00,
2013-06-09 20:44:00,72.6,62.7,29.07,SSW,198,4.0,11.0,71,0.00,,,0.00,WUHU216DAVISVP2,2013-06-10 00:44:00,
2013-06-09 20:45:00,72.6,62.7,29.07,SSW,192,5.0,11.0,71,0.00,,,0.00,WUHU216DAVISVP2,2013-06-10 00:45:00,
2013-06-09 20:48:00,72.6,62.8,29.06,SSE,147,7.0,14.0,71,0.00,,,0.00,WUHU216DAVISVP2,2013-06-10 00:48:00,
2013-06-09 20:49:00,72.6,63.2,29.07,SSW,211,5.0,14.0,72,0.00,,,0.00,WUHU216DAVISVP2,2013-06-10 00:49:00,
2013-06-09 20:50:00,72.5,62.7,29.07,SSE,158,5.0,14.0,71,0.00,,,0.00,WUHU216DAVISVP2,2013-06-10 00:50:00,
2013-06-09 20:53:00,72.5,63.1,29.07,SSW,196,4.0,14.0,72,0.00,,,0.00,WUHU216DAVISVP2,2013-06-10 00:53:00,
2013-06-09 20:54:00,72.5,63.1,29.07,WSW,241,5.0,14.0,72,0.00,,,0.00,WUHU216DAVISVP2,2013-06-10 00:54:00,
2013-06-09 20:56:00,72.4,63.0,29.07,SSE,166,5.0,14.0,72,0.00,,,0.00,WUHU216DAVISVP2,2013-06-10 00:56:00,
2013-06-09 20:58:00,72.4,63.0,29.07,South,190,0.0,14.0,72,0.00,,,0.00,WUHU216DAVISVP2,2013-06-10 00:58:00,
2013-06-09 20:59:00,72.4,63.0,29.07,South,186,3.0,14.0,72,0.00,,,0.00,WUHU216DAVISVP2,2013-06-10 00:59:00,
2013-06-09 21:00:00,72.4,63.0,29.07,South,183,8.0,14.0,72,0.00,,,0.00,WUHU216DAVISVP2,2013-06-10 01:00:00,
2013-06-09 21:02:00,72.4,63.0,29.07,South,187,1.0,14.0,72,0.00,,,0.00,WUHU216DAVISVP2,2013-06-10 01:02:00,
2013-06-09 21:03:00,72.4,63.0,29.07,SSW,197,2.0,14.0,72,0.00,,,0.00,WUHU216DAVISVP2,2013-06-10 01:03:00,
2013-06-09 21:04:00,72.4,63.0,29.06,SE,142,7.0,14.0,72,0.00,,,0.00,WUHU216DAVISVP2,2013-06-10 01:04:00,
2013-06-09 21:05:00,72.4,63.0,29.06,South,179,7.0,13.0,72,0.00,,,0.00,WUHU216DAVISVP2,2013-06-10 01:05:00,
2013-06-09 21:07:00,72.4,63.0,29.06,South,177,7.0,13.0,72,0.00,,,0.00,WUHU216DAVISVP2,2013-06-10 01:07:00,
2013-06-09 21:08:00,72.4,63.0,29.06,SSE,166,10.0,13.0,72,0.00,,,0.00,WUHU216DAVISVP2,2013-06-10 01:08:00,
2013-06-09 21:09:00,72.4,63.0,29.06,South,172,5.0,13.0,72,0.00,,,0.00,WUHU216DAVISVP2,2013-06-10 01:09:00,
2013-06-09 21:10:00,72.4,63.0,29.06,SSW,199,4.0,13.0,72,0.00,,,0.00,WUHU216DAVISVP2,2013-06-10 01:10:00,
2013-06-09 21:13:00,72.4,63.0,29.06,SSW,192,5.0,13.0,72,0.00,,,0.00,WUHU216DAVISVP2,2013-06-10 01:13:00,
2013-06-09 21:14:00,72.4,63.0,29.06,SE,144,5.0,13.0,72,0.00,,,0.00,WUHU216DAVISVP2,2013-06-10 01:14:00,
2013-06-09 21:15:00,72.3,62.9,29.06,South,184,2.0,13.0,72,0.00,,,0.00,WUHU216DAVISVP2,2013-06-10 01:15:00,
2013-06-09 21:18:00,72.3,62.9,29.06,SW,222,4.0,13.0,72,0.00,,,0.00,WUHU216DAVISVP2,2013-06-10 01:18:00,
2013-06-09 21:19:00,72.3,62.9,29.06,South,177,4.0,13.0,72,0.00,,,0.00,WUHU216DAVISVP2,2013-06-10 01:19:00,
2013-06-09 21:20:00,72.2,62.8,29.06,SSW,193,1.0,13.0,72,0.00,,,0.00,WUHU216DAVISVP2,2013-06-10 01:20:00,
2013-06-09 21:23:00,72.2,62.7,29.06,South,170,7.0,13.0,72,0.00,,,0.00,WUHU216DAVISVP2,2013-06-10 01:23:00,
2013-06-09 21:24:00,72.2,62.7,29.06,SSE,159,4.0,13.0,72,0.00,,,0.00,WUHU216DAVISVP2,2013-06-10 01:24:00,
2013-06-09 21:25:00,72.2,62.7,29.06,South,177,1.0,10.0,72,0.00,,,0.00,WUHU216DAVISVP2,2013-06-10 01:25:00,
2013-06-09 21:28:00,72.1,63.1,29.06,SSE,160,4.0,10.0,73,0.00,,,0.00,WUHU216DAVISVP2,2013-06-10 01:28:00,
2013-06-09 21:29:00,72.1,63.1,29.06,South,176,6.0,10.0,73,0.00,,,0.00,WUHU216DAVISVP2,2013-06-10 01:29:00,
2013-06-09 21:30:00,72.1,63.1,29.06,SE,134,4.0,9.0,73,0.00,,,0.00,WUHU216DAVISVP2,2013-06-10 01:30:00,
2013-06-09 21:33:00,72.1,63.1,29.06,SW,225,6.0,12.0,73,0.00,,,0.00,WUHU216DAVISVP2,2013-06-10 01:33:00,
2013-06-09 21:34:00,72.1,63.1,29.06,South,189,5.0,12.0,73,0.00,,,0.00,WUHU216DAVISVP2,2013-06-10 01:34:00,
2013-06-09 21:35:00,72.1,63.1,29.06,SSE,168,11.0,12.0,73,0.00,,,0.00,WUHU216DAVISVP2,2013-06-10 01:35:00,
2013-06-09 21:36:00,72.1,63.5,29.06,South,179,5.0,12.0,74,0.00,,,0.00,WUHU216DAVISVP2,2013-06-10 01:36:00,
2013-06-09 21:38:00,72.1,63.5,29.06,South,177,5.0,12.0,74,0.00,,,0.00,WUHU216DAVISVP2,2013-06-10 01:38:00,
2013-06-09 21:39:00,72.1,63.5,29.06,South,170,8.0,12.0,74,0.00,,,0.00,WUHU216DAVISVP2,2013-06-10 01:39:00,
2013-06-09 21:40:00,72.1,63.5,29.06,SSE,163,7.0,12.0,74,0.00,,,0.00,WUHU216DAVISVP2,2013-06-10 01:40:00,
2013-06-09 21:41:00,72.1,63.5,29.06,South,179,10.0,12.0,74,0.00,,,0.00,WUHU216DAVISVP2,2013-06-10 01:41:00,
2013-06-09 21:42:00,72.1,63.5,29.06,South,184,6.0,12.0,74,0.00,,,0.00,WUHU216DAVISVP2,2013-06-10 01:42:00,
2013-06-09 21:44:00,72.1,63.9,29.05,SSE,166,10.0,16.0,75,0.00,,,0.00,WUHU216DAVISVP2,2013-06-10 01:44:00,
2013-06-09 21:45:00,72.1,63.9,29.05,South,181,1.0,16.0,75,0.00,,,0.00,WUHU216DAVISVP2,2013-06-10 01:45:00,
2013-06-09 21:46:00,72.1,63.9,29.05,South,181,1.0,16.0,75,0.00,,,0.00,WUHU216DAVISVP2,2013-06-10 01:46:00,
2013-06-09 21:47:00,72.1,63.9,29.05,SSW,204,4.0,16.0,75,0.00,,,0.00,WUHU216DAVISVP2,2013-06-10 01:47:00,
2013-06-09 21:49:00,72.0,63.8,29.05,SSW,208,0.0,16.0,75,0.00,,,0.00,WUHU216DAVISVP2,2013-06-10 01:49:00,
2013-06-09 21:50:00,72.0,64.2,29.05,South,177,7.0,16.0,76,0.00,,,0.00,WUHU216DAVISVP2,2013-06-10 01:50:00,
2013-06-09 21:51:00,72.0,64.2,29.05,South,179,5.0,16.0,76,0.00,,,0.00,WUHU216DAVISVP2,2013-06-10 01:51:00,
2013-06-09 21:52:00,71.9,64.1,29.05,SSW,212,5.0,16.0,76,0.00,,,0.00,WUHU216DAVISVP2,2013-06-10 01:52:00,
2013-06-09 21:54:00,71.9,64.1,29.06,SSW,206,0.0,16.0,76,0.00,,,0.00,WUHU216DAVISVP2,2013-06-10 01:54:00,
2013-06-09 21:55:00,71.8,64.0,29.06,SSE,160,5.0,16.0,76,0.00,,,0.00,WUHU216DAVISVP2,2013-06-10 01:55:00,
2013-06-09 21:57:00,71.7,63.9,29.06,SSW,209,2.0,16.0,76,0.00,,,0.00,WUHU216DAVISVP2,2013-06-10 01:57:00,
2013-06-09 21:59:00,71.7,64.2,29.06,SE,143,2.0,16.0,77,0.00,,,0.00,WUHU216DAVISVP2,2013-06-10 01:59:00,
2013-06-09 22:01:00,71.7,64.2,29.06,SSE,167,9.0,16.0,77,0.00,,,0.00,WUHU216DAVISVP2,2013-06-10 02:01:00,
2013-06-09 22:02:00,71.6,64.1,29.06,SSW,205,4.0,11.0,77,0.00,,,0.00,WUHU216DAVISVP2,2013-06-10 02:02:00,
2013-06-09 22:04:00,71.5,64.4,29.06,SSE,166,6.0,13.0,78,0.00,,,0.00,WUHU216DAVISVP2,2013-06-10 02:04:00,
2013-06-09 22:05:00,71.5,64.4,29.06,SSW,204,4.0,13.0,78,0.00,,,0.00,WUHU216DAVISVP2,2013-06-10 02:05:00,
2013-06-09 22:06:00,71.5,64.4,29.06,South,173,6.0,13.0,78,0.00,,,0.00,WUHU216DAVISVP2,2013-06-10 02:06:00,
2013-06-09 22:07:00,71.4,64.3,29.06,SSW,205,5.0,13.0,78,0.00,,,0.00,WUHU216DAVISVP2,2013-06-10 02:07:00,
2013-06-09 22:09:00,71.3,64.5,29.06,South,185,1.0,13.0,79,0.00,,,0.00,WUHU216DAVISVP2,2013-06-10 02:09:00,
2013-06-09 22:10:00,71.2,64.5,29.06,SW,216,7.0,13.0,79,0.00,,,0.00,WUHU216DAVISVP2,2013-06-10 02:10:00,
2013-06-09 22:12:00,71.1,64.7,29.06,South,182,9.0,14.0,80,0.00,,,0.00,WUHU216DAVISVP2,2013-06-10 02:12:00,
2013-06-09 22:13:00,71.0,64.6,29.06,South,188,7.0,14.0,80,0.00,,,0.00,WUHU216DAVISVP2,2013-06-10 02:13:00,
2013-06-09 22:14:00,70.7,64.7,29.06,South,180,6.0,14.0,81,0.00,,,0.00,WUHU216DAVISVP2,2013-06-10 02:14:00,
2013-06-09 22:15:00,70.5,64.5,29.06,SSW,201,1.0,14.0,81,0.00,,,0.00,WUHU216DAVISVP2,2013-06-10 02:15:00,
2013-06-09 22:17:00,70.3,64.6,29.06,South,170,2.0,14.0,82,0.00,,,0.00,WUHU216DAVISVP2,2013-06-10 02:17:00,
2013-06-09 22:18:00,70.1,64.4,29.06,SW,224,2.0,14.0,82,0.00,,,0.00,WUHU216DAVISVP2,2013-06-10 02:18:00,
2013-06-09 22:20:00,69.9,64.5,29.06,SW,218,4.0,14.0,83,0.00,,,0.00,WUHU216DAVISVP2,2013-06-10 02:20:00,
2013-06-09 22:22:00,69.5,64.5,29.06,SE,138,4.0,14.0,84,0.00,,,0.00,WUHU216DAVISVP2,2013-06-10 02:22:00,
2013-06-09 22:23:00,69.4,64.7,29.06,South,172,7.0,14.0,85,0.00,,,0.00,WUHU216DAVISVP2,2013-06-10 02:23:00,
2013-06-09 22:25:00,69.1,64.4,29.06,South,183,11.0,14.0,85,0.00,,,0.00,WUHU216DAVISVP2,2013-06-10 02:25:00,
2013-06-09 22:26:00,68.9,64.6,29.06,South,187,4.0,14.0,86,0.00,,,0.00,WUHU216DAVISVP2,2013-06-10 02:26:00,
2013-06-09 22:27:00,68.7,64.4,29.06,SE,127,1.0,14.0,86,0.00,,,0.00,WUHU216DAVISVP2,2013-06-10 02:27:00,
2013-06-09 22:28:00,68.6,64.3,29.05,SE,128,2.0,14.0,86,0.00,,,0.00,WUHU216DAVISVP2,2013-06-10 02:28:00,
2013-06-09 22:30:00,68.4,64.4,29.06,South,170,8.0,12.0,87,0.00,,,0.00,WUHU216DAVISVP2,2013-06-10 02:30:00,
2013-06-09 22:32:00,68.2,64.5,29.06,South,175,1.0,12.0,88,0.00,,,0.00,WUHU216DAVISVP2,2013-06-10 02:32:00,
2013-06-09 22:33:00,68.1,64.4,29.06,South,175,1.0,12.0,88,0.00,,,0.00,WUHU216DAVISVP2,2013-06-10 02:33:00,
2013-06-09 22:35:00,68.0,64.6,29.06,South,175,0.0,12.0,89,0.00,,,0.00,WUHU216DAVISVP2,2013-06-10 02:35:00,
2013-06-09 22:37:00,67.9,64.5,29.06,South,183,5.0,12.0,89,0.00,,,0.00,WUHU216DAVISVP2,2013-06-10 02:37:00,
2013-06-09 22:38:00,67.9,64.5,29.06,SSW,212,3.0,12.0,89,0.00,,,0.00,WUHU216DAVISVP2,2013-06-10 02:38:00,
2013-06-09 22:39:00,67.9,64.5,29.06,South,189,4.0,12.0,89,0.00,,,0.00,WUHU216DAVISVP2,2013-06-10 02:39:00,
2013-06-09 22:40:00,67.7,64.6,29.06,SSE,163,5.0,12.0,90,0.00,,,0.00,WUHU216DAVISVP2,2013-06-10 02:40:00,
2013-06-09 22:42:00,67.6,64.5,29.05,SSE,160,1.0,12.0,90,0.00,,,0.00,WUHU216DAVISVP2,2013-06-10 02:42:00,
2013-06-09 22:43:00,67.6,64.5,29.05,SSE,160,0.0,12.0,90,0.00,,,0.00,WUHU216DAVISVP2,2013-06-10 02:43:00,
2013-06-09 22:44:00,67.5,64.4,29.05,South,183,0.0,10.0,90,0.00,,,0.00,WUHU216DAVISVP2,2013-06-10 02:44:00,
2013-06-09 22:45:00,67.5,64.8,29.05,South,183,0.0,9.0,91,0.00,,,0.00,WUHU216DAVISVP2,2013-06-10 02:45:00,
2013-06-09 22:47:00,67.5,64.8,29.05,South,183,0.0,9.0,91,0.00,,,0.00,WUHU216DAVISVP2,2013-06-10 02:47:00,
2013-06-09 22:48:00,67.5,64.8,29.05,South,183,0.0,9.0,91,0.00,,,0.00,WUHU216DAVISVP2,2013-06-10 02:48:00,
2013-06-09 22:49:00,67.5,64.8,29.05,South,183,0.0,9.0,91,0.00,,,0.00,WUHU216DAVISVP2,2013-06-10 02:49:00,
2013-06-09 22:50:00,67.4,64.7,29.05,South,183,2.0,9.0,91,0.00,,,0.00,WUHU216DAVISVP2,2013-06-10 02:50:00,
2013-06-09 22:51:00,67.4,64.7,29.05,South,183,4.0,9.0,91,0.00,,,0.00,WUHU216DAVISVP2,2013-06-10 02:51:00,
2013-06-09 22:52:00,67.4,64.7,29.05,South,183,0.0,9.0,91,0.00,,,0.00,WUHU216DAVISVP2,2013-06-10 02:52:00,
2013-06-09 22:53:00,67.4,64.7,29.05,South,183,0.0,9.0,91,0.00,,,0.00,WUHU216DAVISVP2,2013-06-10 02:53:00,
2013-06-09 22:54:00,67.4,64.7,29.05,South,183,0.0,9.0,91,0.00,,,0.00,WUHU216DAVISVP2,2013-06-10 02:54:00,
2013-06-09 22:56:00,67.4,64.7,29.05,South,183,0.0,9.0,91,0.00,,,0.00,WUHU216DAVISVP2,2013-06-10 02:56:00,
2013-06-09 22:58:00,67.4,64.7,29.05,South,183,0.0,7.0,91,0.00,,,0.00,WUHU216DAVISVP2,2013-06-10 02:58:00,
2013-06-09 22:59:00,67.4,64.7,29.05,South,183,1.0,7.0,91,0.00,,,0.00,WUHU216DAVISVP2,2013-06-10 02:59:00,
2013-06-09 23:01:00,67.3,64.6,29.04,South,183,0.0,6.0,91,0.00,,,0.00,WUHU216DAVISVP2,2013-06-10 03:01:00,
2013-06-09 23:03:00,67.3,64.9,29.04,South,183,0.0,5.0,92,0.00,,,0.00,WUHU216DAVISVP2,2013-06-10 03:03:00,
2013-06-09 23:04:00,67.3,64.9,29.04,South,183,0.0,5.0,92,0.00,,,0.00,WUHU216DAVISVP2,2013-06-10 03:04:00,
2013-06-09 23:06:00,67.3,64.9,29.04,South,183,0.0,5.0,92,0.00,,,0.00,WUHU216DAVISVP2,2013-06-10 03:06:00,
2013-06-09 23:08:00,67.3,64.9,29.04,South,183,0.0,5.0,92,0.00,,,0.00,WUHU216DAVISVP2,2013-06-10 03:08:00,
2013-06-09 23:09:00,67.3,64.9,29.04,South,183,0.0,5.0,92,0.00,,,0.00,WUHU216DAVISVP2,2013-06-10 03:09:00,
2013-06-09 23:10:00,67.3,64.9,29.04,South,183,2.0,4.0,92,0.00,,,0.00,WUHU216DAVISVP2,2013-06-10 03:10:00,
2013-06-09 23:11:00,67.3,64.9,29.04,South,183,0.0,4.0,92,0.00,,,0.00,WUHU216DAVISVP2,2013-06-10 03:11:00,
2013-06-09 23:12:00,67.3,64.9,29.04,South,183,0.0,4.0,92,0.00,,,0.00,WUHU216DAVISVP2,2013-06-10 03:12:00,
2013-06-09 23:14:00,67.2,64.8,29.04,South,183,0.0,4.0,92,0.00,,,0.00,WUHU216DAVISVP2,2013-06-10 03:14:00,
2013-06-09 23:15:00,67.2,64.8,29.04,South,183,0.0,4.0,92,0.00,,,0.00,WUHU216DAVISVP2,2013-06-10 03:15:00,
2013-06-09 23:16:00,67.3,64.9,29.04,South,183,0.0,4.0,92,0.00,,,0.00,WUHU216DAVISVP2,2013-06-10 03:16:00,
2013-06-09 23:17:00,67.3,64.9,29.04,South,183,0.0,4.0,92,0.00,,,0.00,WUHU216DAVISVP2,2013-06-10 03:17:00,
2013-06-09 23:19:00,67.2,64.8,29.04,South,183,0.0,4.0,92,0.00,,,0.00,WUHU216DAVISVP2,2013-06-10 03:19:00,
2013-06-09 23:20:00,67.2,64.8,29.04,East,84,2.0,4.0,92,0.00,,,0.00,WUHU216DAVISVP2,2013-06-10 03:20:00,
2013-06-09 23:22:00,67.3,64.9,29.04,East,85,0.0,4.0,92,0.00,,,0.00,WUHU216DAVISVP2,2013-06-10 03:22:00,
2013-06-09 23:23:00,67.2,65.1,29.04,East,85,0.0,4.0,93,0.00,,,0.00,WUHU216DAVISVP2,2013-06-10 03:23:00,
2013-06-09 23:24:00,67.2,65.1,29.04,East,85,0.0,4.0,93,0.00,,,0.00,WUHU216DAVISVP2,2013-06-10 03:24:00,
2013-06-09 23:25:00,67.2,65.1,29.04,East,84,0.0,4.0,93,0.00,,,0.00,WUHU216DAVISVP2,2013-06-10 03:25:00,
2013-06-09 23:27:00,67.2,65.1,29.04,East,85,0.0,4.0,93,0.00,,,0.00,WUHU216DAVISVP2,2013-06-10 03:27:00,
2013-06-09 23:28:00,67.3,65.2,29.04,East,85,0.0,4.0,93,0.00,,,0.00,WUHU216DAVISVP2,2013-06-10 03:28:00,
2013-06-09 23:29:00,67.2,65.1,29.04,East,85,0.0,4.0,93,0.00,,,0.00,WUHU216DAVISVP2,2013-06-10 03:29:00,
2013-06-09 23:30:00,67.3,65.2,29.04,East,85,0.0,4.0,93,0.00,,,0.00,WUHU216DAVISVP2,2013-06-10 03:30:00,
2013-06-09 23:32:00,67.3,65.2,29.04,East,84,0.0,4.0,93,0.00,,,0.00,WUHU216DAVISVP2,2013-06-10 03:32:00,
2013-06-09 23:33:00,67.3,65.2,29.04,East,85,0.0,4.0,93,0.00,,,0.00,WUHU216DAVISVP2,2013-06-10 03:33:00,
2013-06-09 23:34:00,67.3,65.2,29.04,East,85,0.0,4.0,93,0.00,,,0.00,WUHU216DAVISVP2,2013-06-10 03:34:00,
2013-06-09 23:35:00,67.3,65.2,29.04,East,84,0.0,4.0,93,0.00,,,0.00,WUHU216DAVISVP2,2013-06-10 03:35:00,
2013-06-09 23:37:00,67.3,65.2,29.04,East,84,0.0,4.0,93,0.00,,,0.00,WUHU216DAVISVP2,2013-06-10 03:37:00,
2013-06-09 23:38:00,67.3,65.2,29.03,East,84,0.0,4.0,93,0.00,,,0.00,WUHU216DAVISVP2,2013-06-10 03:38:00,
2013-06-09 23:39:00,67.3,65.2,29.04,East,85,0.0,1.0,93,0.00,,,0.00,WUHU216DAVISVP2,2013-06-10 03:39:00,
2013-06-09 23:40:00,67.3,65.2,29.04,East,84,0.0,1.0,93,0.00,,,0.00,WUHU216DAVISVP2,2013-06-10 03:40:00,
2013-06-09 23:42:00,67.3,65.2,29.03,East,84,0.0,1.0,93,0.00,,,0.00,WUHU216DAVISVP2,2013-06-10 03:42:00,
2013-06-09 23:43:00,67.3,65.2,29.04,East,84,1.0,1.0,93,0.00,,,0.00,WUHU216DAVISVP2,2013-06-10 03:43:00,
2013-06-09 23:45:00,67.3,65.2,29.04,East,85,0.0,2.0,93,0.00,,,0.00,WUHU216DAVISVP2,2013-06-10 03:45:00,
2013-06-09 23:47:00,67.3,65.2,29.04,East,84,1.0,2.0,93,0.00,,,0.00,WUHU216DAVISVP2,2013-06-10 03:47:00,
2013-06-09 23:48:00,67.3,65.2,29.03,East,85,0.0,2.0,93,0.00,,,0.00,WUHU216DAVISVP2,2013-06-10 03:48:00,
2013-06-09 23:50:00,67.3,65.2,29.03,East,84,0.0,2.0,93,0.00,,,0.00,WUHU216DAVISVP2,2013-06-10 03:50:00,
2013-06-09 23:51:00,67.3,65.2,29.03,East,84,1.0,2.0,93,0.00,,,0.00,WUHU216DAVISVP2,2013-06-10 03:51:00,
2013-06-09 23:52:00,67.3,65.2,29.03,East,85,0.0,2.0,93,0.00,,,0.00,WUHU216DAVISVP2,2013-06-10 03:52:00,
2013-06-09 23:54:00,67.3,65.2,29.04,East,84,0.0,2.0,93,0.00,,,0.00,WUHU216DAVISVP2,2013-06-10 03:54:00,
2013-06-09 23:55:00,67.3,65.2,29.04,East,84,0.0,2.0,93,0.00,,,0.00,WUHU216DAVISVP2,2013-06-10 03:55:00,
2013-06-09 23:56:00,67.3,65.2,29.03,East,84,0.0,2.0,93,0.00,,,0.00,WUHU216DAVISVP2,2013-06-10 03:56:00,
2013-06-09 23:57:00,67.3,65.2,29.03,East,85,0.0,2.0,93,0.00,,,0.00,WUHU216DAVISVP2,2013-06-10 03:57:00,
2013-06-09 23:59:00,67.3,65.2,29.03,East,85,1.0,2.0,93,0.00,,,0.00,WUHU216DAVISVP2,2013-06-10 03:59:00,